Observation data for Stamford on 12/09/2018      Previous  Date       Current Mesonet Observations  Soil Data  Daily Summary Page  Observations in Plain Language
KST2 090600Z 29006KT M02/M03 A3033 RMK A01 T10201034  RH  090%=      5-min Rain = 0
KST2 090601Z 29006KT M02/M03 A3033 RMK A01 T10201034  RH  090%=      5-min Rain = 0
KST2 090602Z 29007KT M02/M03 A3033 RMK A01 T10201034  RH  090%=      5-min Rain = 0
KST2 090603Z 29006KT M02/M03 A3033 RMK A01 T10211034  RH  090%=      5-min Rain = 0
KST2 090604Z 29007KT M02/M03 A3033 RMK A01 T10201034  RH  090%=      5-min Rain = 0
KST2 090605Z 29007KT M02/M03 A3033 RMK A01 T10201034  RH  090%=      5-min Rain = 0
KST2 090606Z 28007KT M02/M03 A3033 RMK A01 T10211034  RH  090%=      5-min Rain = 0
KST2 090607Z 29007KT M02/M04 A3033 RMK A01 T10211035  RH  090%=      5-min Rain = 0
KST2 090608Z 29006KT M02/M04 A3033 RMK A01 T10211035  RH  090%=      5-min Rain = 0
KST2 090609Z 28006KT M02/M04 A3033 RMK A01 T10211035  RH  090%=      5-min Rain = 0
KST2 090610Z 28006KT M02/M04 A3033 RMK A01 T10211035  RH  091%=      5-min Rain = 0
KST2 090611Z 28007KT M02/M04 A3033 RMK A01 T10211035  RH  091%=      5-min Rain = 0
KST2 090612Z 28007KT M02/M04 A3033 RMK A01 T10211035  RH  091%=      5-min Rain = 0
KST2 090613Z 28007KT M02/M04 A3033 RMK A01 T10211035  RH  090%=      5-min Rain = 0
KST2 090614Z 28007KT M02/M04 A3033 RMK A01 T10211035  RH  090%=      5-min Rain = 0
KST2 090615Z 29006KT M02/M04 A3033 RMK A01 T10211035  RH  090%=      5-min Rain = 0
KST2 090616Z 29006KT M02/M03 A3033 RMK A01 T10201034  RH  090%=      5-min Rain = 0
KST2 090617Z 29006KT M02/M04 A3033 RMK A01 T10211035  RH  090%=      5-min Rain = 0
KST2 090618Z 29006KT M02/M04 A3033 RMK A01 T10201035  RH  090%=      5-min Rain = 0
KST2 090619Z 29007KT M02/M04 A3033 RMK A01 T10211035  RH  090%=      5-min Rain = 0
KST2 090620Z 29007KT M02/M04 A3032 RMK A01 T10211035  RH  090%=      5-min Rain = 0
KST2 090621Z 29007KT M02/M04 A3032 RMK A01 T10211035  RH  090%=      5-min Rain = 0
KST2 090622Z 29006KT M02/M04 A3032 RMK A01 T10211035  RH  090%=      5-min Rain = 0
KST2 090623Z 29006KT M02/M04 A3032 RMK A01 T10211035  RH  090%=      5-min Rain = 0
KST2 090624Z 29006KT M02/M04 A3032 RMK A01 T10211035  RH  090%=      5-min Rain = 0
KST2 090625Z 29006KT M02/M04 A3032 RMK A01 T10211036  RH  090%=      5-min Rain = 0
KST2 090626Z 29006KT M02/M04 A3032 RMK A01 T10211036  RH  090%=      5-min Rain = 0
KST2 090627Z 29006KT M02/M04 A3032 RMK A01 T10211036  RH  090%=      5-min Rain = 0
KST2 090628Z 30006KT M02/M04 A3032 RMK A01 T10221036  RH  090%=      5-min Rain = 0
KST2 090629Z 30006KT M02/M04 A3032 RMK A01 T10221036  RH  090%=      5-min Rain = 0
KST2 090630Z 30006KT M02/M04 A3032 RMK A01 T10211036  RH  090%=      5-min Rain = 0
KST2 090631Z 30006KT M02/M04 A3032 RMK A01 T10211036  RH  089%=      5-min Rain = 0
KST2 090632Z 30006KT M02/M04 A3032 RMK A01 T10211037  RH  089%=      5-min Rain = 0
KST2 090633Z 30006KT M02/M04 A3032 RMK A01 T10211037  RH  089%=      5-min Rain = 0
KST2 090634Z 30006KT M02/M04 A3032 RMK A01 T10211038  RH  089%=      5-min Rain = 0
KST2 090635Z 30006KT M02/M04 A3032 RMK A01 T10211038  RH  088%=      5-min Rain = 0
KST2 090636Z 30006KT M02/M04 A3032 RMK A01 T10211038  RH  088%=      5-min Rain = 0
KST2 090637Z 30006KT M02/M04 A3032 RMK A01 T10211038  RH  088%=      5-min Rain = 0
KST2 090638Z 30006KT M02/M04 A3032 RMK A01 T10211038  RH  088%=      5-min Rain = 0
KST2 090639Z 30006KT M02/M04 A3032 RMK A01 T10211039  RH  088%=      5-min Rain = 0
KST2 090640Z 30006KT M02/M04 A3032 RMK A01 T10211039  RH  088%=      5-min Rain = 0
KST2 090641Z 30006KT M02/M04 A3032 RMK A01 T10211038  RH  088%=      5-min Rain = 0
KST2 090642Z 30006KT M02/M04 A3032 RMK A01 T10201038  RH  088%=      5-min Rain = 0
KST2 090643Z 30006KT M02/M04 A3032 RMK A01 T10201038  RH  088%=      5-min Rain = 0
KST2 090644Z 30006KT M02/M04 A3032 RMK A01 T10201038  RH  088%=      5-min Rain = 0
KST2 090645Z 30006KT M02/M04 A3032 RMK A01 T10201038  RH  087%=      5-min Rain = 0
KST2 090646Z 29006KT M02/M04 A3032 RMK A01 T10211039  RH  087%=      5-min Rain = 0
KST2 090647Z 29006KT M02/M04 A3032 RMK A01 T10201039  RH  087%=      5-min Rain = 0
KST2 090648Z 29006KT M02/M04 A3032 RMK A01 T10201038  RH  087%=      5-min Rain = 0
KST2 090649Z 29006KT M02/M04 A3032 RMK A01 T10201038  RH  087%=      5-min Rain = 0
KST2 090650Z 29006KT M02/M04 A3032 RMK A01 T10211039  RH  087%=      5-min Rain = 0
KST2 090651Z 29006KT M02/M04 A3033 RMK A01 T10201039  RH  087%=      5-min Rain = 0
KST2 090652Z 29007KT M02/M04 A3033 RMK A01 T10201038  RH  088%=      5-min Rain = 0
KST2 090653Z 29007KT M02/M04 A3033 RMK A01 T10201038  RH  088%=      5-min Rain = 0
KST2 090654Z 29007KT M02/M04 A3033 RMK A01 T10201038  RH  088%=      5-min Rain = 0
KST2 090655Z 29007KT M02/M04 A3033 RMK A01 T10201038  RH  088%=      5-min Rain = 0
KST2 090656Z 29007KT M02/M04 A3033 RMK A01 T10201037  RH  088%=      5-min Rain = 0
KST2 090657Z 29007KT M02/M04 A3033 RMK A01 T10201037  RH  088%=      5-min Rain = 0
KST2 090658Z 29007KT M02/M04 A3033 RMK A01 T10211037  RH  088%=      5-min Rain = 0
KST2 090659Z 29007KT M02/M04 A3033 RMK A01 T10201037  RH  088%=      5-min Rain = 0
KST2 090700Z 29006KT M02/M04 A3032 RMK A01 T10201037  RH  088%=      5-min Rain = 0
KST2 090701Z 29007KT M02/M04 A3032 RMK A01 T10201037  RH  088%=      5-min Rain = 0
KST2 090702Z 30006KT M02/M04 A3032 RMK A01 T10211038  RH  088%=      5-min Rain = 0
KST2 090703Z 29006KT M02/M04 A3032 RMK A01 T10211038  RH  088%=      5-min Rain = 0
KST2 090704Z 29006KT M02/M04 A3032 RMK A01 T10211038  RH  088%=      5-min Rain = 0
KST2 090705Z 29006KT M02/M04 A3032 RMK A01 T10211038  RH  088%=      5-min Rain = 0
KST2 090706Z 30006KT M02/M04 A3032 RMK A01 T10211038  RH  088%=      5-min Rain = 0
KST2 090707Z 30007KT M02/M04 A3032 RMK A01 T10211038  RH  088%=      5-min Rain = 0
KST2 090708Z 30006KT M02/M04 A3032 RMK A01 T10211038  RH  089%=      5-min Rain = 0
KST2 090709Z 30006KT M02/M04 A3032 RMK A01 T10211038  RH  089%=      5-min Rain = 0
KST2 090710Z 30006KT M02/M04 A3032 RMK A01 T10211038  RH  088%=      5-min Rain = 0
KST2 090711Z 30007KT M02/M04 A3032 RMK A01 T10211038  RH  088%=      5-min Rain = 0
KST2 090712Z 30007KT M02/M04 A3032 RMK A01 T10211038  RH  088%=      5-min Rain = 0
KST2 090713Z 30007KT M02/M04 A3032 RMK A01 T10211038  RH  088%=      5-min Rain = 0
KST2 090714Z 30007KT M02/M04 A3032 RMK A01 T10211038  RH  089%=      5-min Rain = 0
KST2 090715Z 30007KT M02/M04 A3032 RMK A01 T10221038  RH  089%=      5-min Rain = 0
KST2 090716Z 30007KT M02/M04 A3032 RMK A01 T10221039  RH  088%=      5-min Rain = 0
KST2 090717Z 30007KT M02/M04 A3032 RMK A01 T10221039  RH  088%=      5-min Rain = 0
KST2 090718Z 30007KT M02/M04 A3032 RMK A01 T10221039  RH  088%=      5-min Rain = 0
KST2 090719Z 30007KT M02/M04 A3032 RMK A01 T10221039  RH  088%=      5-min Rain = 0
KST2 090720Z 30007KT M02/M04 A3032 RMK A01 T10221039  RH  088%=      5-min Rain = 0
KST2 090721Z 30006KT M02/M04 A3032 RMK A01 T10221039  RH  088%=      5-min Rain = 0
KST2 090722Z 30006KT M02/M04 A3032 RMK A01 T10221038  RH  089%=      5-min Rain = 0
KST2 090723Z 30006KT M02/M04 A3032 RMK A01 T10231039  RH  088%=      5-min Rain = 0
KST2 090724Z 30006KT M02/M04 A3032 RMK A01 T10231039  RH  089%=      5-min Rain = 0
KST2 090725Z 30006KT M02/M04 A3032 RMK A01 T10231040  RH  089%=      5-min Rain = 0
KST2 090726Z 30006KT M02/M04 A3033 RMK A01 T10231040  RH  089%=      5-min Rain = 0
KST2 090727Z 30006KT M02/M04 A3033 RMK A01 T10231039  RH  089%=      5-min Rain = 0
KST2 090728Z 30006KT M02/M04 A3033 RMK A01 T10231040  RH  089%=      5-min Rain = 0
KST2 090729Z 30006KT M02/M04 A3033 RMK A01 T10241040  RH  089%=      5-min Rain = 0
KST2 090730Z 30006KT M02/M04 A3033 RMK A01 T10241040  RH  089%=      5-min Rain = 0
KST2 090731Z 30006KT M02/M04 A3033 RMK A01 T10241040  RH  089%=      5-min Rain = 0
KST2 090732Z 30006KT M02/M04 A3033 RMK A01 T10241040  RH  089%=      5-min Rain = 0
KST2 090733Z 30006KT M02/M04 A3033 RMK A01 T10241040  RH  089%=      5-min Rain = 0
KST2 090734Z 30006KT M02/M04 A3033 RMK A01 T10241040  RH  089%=      5-min Rain = 0
KST2 090735Z 30006KT M02/M04 A3033 RMK A01 T10241040  RH  089%=      5-min Rain = 0
KST2 090736Z 30007KT M02/M04 A3033 RMK A01 T10241040  RH  089%=      5-min Rain = 0
KST2 090737Z 30007KT M02/M04 A3033 RMK A01 T10241040  RH  089%=      5-min Rain = 0
KST2 090738Z 30007KT M02/M04 A3033 RMK A01 T10231040  RH  089%=      5-min Rain = 0
KST2 090739Z 30007KT M02/M04 A3033 RMK A01 T10241040  RH  089%=      5-min Rain = 0
KST2 090740Z 30006KT M02/M04 A3033 RMK A01 T10241040  RH  088%=      5-min Rain = 0
KST2 090741Z 30006KT M02/M04 A3033 RMK A01 T10231040  RH  088%=      5-min Rain = 0
KST2 090742Z 30006KT M02/M04 A3033 RMK A01 T10231040  RH  088%=      5-min Rain = 0
KST2 090743Z 30007KT M02/M04 A3033 RMK A01 T10231040  RH  088%=      5-min Rain = 0
KST2 090744Z 30007KT M02/M04 A3033 RMK A01 T10231040  RH  088%=      5-min Rain = 0
KST2 090745Z 30007KT M02/M04 A3033 RMK A01 T10231040  RH  088%=      5-min Rain = 0
KST2 090746Z 30007KT M02/M04 A3032 RMK A01 T10231040  RH  088%=      5-min Rain = 0
KST2 090747Z 30007KT M02/M04 A3032 RMK A01 T10231040  RH  088%=      5-min Rain = 0
KST2 090748Z 30006KT M02/M04 A3032 RMK A01 T10231040  RH  088%=      5-min Rain = 0
KST2 090749Z 30006KT M02/M04 A3032 RMK A01 T10231040  RH  088%=      5-min Rain = 0
KST2 090750Z 30006KT M02/M04 A3032 RMK A01 T10231040  RH  088%=      5-min Rain = 0
KST2 090751Z 30006KT M02/M04 A3032 RMK A01 T10231040  RH  088%=      5-min Rain = 0
KST2 090752Z 31006KT M02/M04 A3032 RMK A01 T10231040  RH  088%=      5-min Rain = 0
KST2 090753Z 31006KT M02/M04 A3032 RMK A01 T10231039  RH  088%=      5-min Rain = 0
KST2 090754Z 31006KT M02/M04 A3032 RMK A01 T10221039  RH  088%=      5-min Rain = 0
KST2 090755Z 31005KT M02/M04 A3032 RMK A01 T10221039  RH  088%=      5-min Rain = 0
KST2 090756Z 31006KT M02/M04 A3032 RMK A01 T10221039  RH  088%=      5-min Rain = 0
KST2 090757Z 31006KT M02/M04 A3032 RMK A01 T10221039  RH  088%=      5-min Rain = 0
KST2 090758Z 31006KT M02/M04 A3032 RMK A01 T10211038  RH  088%=      5-min Rain = 0
KST2 090759Z 31007KT M02/M04 A3032 RMK A01 T10211039  RH  088%=      5-min Rain = 0
KST2 090800Z 31007KT M02/M04 A3032 RMK A01 T10211039  RH  088%=      5-min Rain = 0
KST2 090801Z 31007KT M02/M04 A3032 RMK A01 T10201039  RH  087%=      5-min Rain = 0
KST2 090802Z 31007KT M02/M04 A3032 RMK A01 T10201038  RH  087%=      5-min Rain = 0
KST2 090803Z 31007KT M02/M04 A3032 RMK A01 T10201039  RH  087%=      5-min Rain = 0
KST2 090804Z 31008KT M02/M04 A3032 RMK A01 T10201039  RH  087%=      5-min Rain = 0
KST2 090805Z 31007KT M02/M04 A3032 RMK A01 T10201039  RH  087%=      5-min Rain = 0
KST2 090806Z 31007KT M02/M04 A3032 RMK A01 T10201039  RH  087%=      5-min Rain = 0
KST2 090807Z 31007KT M02/M04 A3032 RMK A01 T10201039  RH  087%=      5-min Rain = 0
KST2 090808Z 30007KT M02/M04 A3032 RMK A01 T10191039  RH  087%=      5-min Rain = 0
KST2 090809Z 30007KT M02/M04 A3033 RMK A01 T10201039  RH  087%=      5-min Rain = 0
KST2 090810Z 30007KT M02/M04 A3033 RMK A01 T10191039  RH  087%=      5-min Rain = 0
KST2 090811Z 31007KT M02/M04 A3033 RMK A01 T10201039  RH  087%=      5-min Rain = 0
KST2 090812Z 30007KT M02/M04 A3033 RMK A01 T10191039  RH  087%=      5-min Rain = 0
KST2 090813Z 30007KT M02/M04 A3033 RMK A01 T10201039  RH  087%=      5-min Rain = 0
KST2 090814Z 30007KT M02/M04 A3033 RMK A01 T10191039  RH  087%=      5-min Rain = 0
KST2 090815Z 30008KT M02/M04 A3033 RMK A01 T10201039  RH  087%=      5-min Rain = 0
KST2 090816Z 31008KT M02/M04 A3033 RMK A01 T10201039  RH  087%=      5-min Rain = 0
KST2 090817Z 31008KT M02/M04 A3033 RMK A01 T10201039  RH  087%=      5-min Rain = 0
KST2 090818Z 31008KT M02/M04 A3033 RMK A01 T10201039  RH  087%=      5-min Rain = 0
KST2 090819Z 31008KT M02/M04 A3033 RMK A01 T10201039  RH  087%=      5-min Rain = 0
KST2 090820Z 31008KT M02/M04 A3033 RMK A01 T10201039  RH  087%=      5-min Rain = 0
KST2 090821Z 31008KT M02/M04 A3033 RMK A01 T10191039  RH  087%=      5-min Rain = 0
KST2 090822Z 31008KT M02/M04 A3033 RMK A01 T10201039  RH  087%=      5-min Rain = 0
KST2 090823Z 31008KT M02/M04 A3033 RMK A01 T10201039  RH  087%=      5-min Rain = 0
KST2 090824Z 31008KT M02/M04 A3033 RMK A01 T10201039  RH  087%=      5-min Rain = 0
KST2 090825Z 31008KT M02/M04 A3033 RMK A01 T10201039  RH  087%=      5-min Rain = 0
KST2 090826Z 31007KT M02/M04 A3033 RMK A01 T10201039  RH  087%=      5-min Rain = 0
KST2 090827Z 32008KT M02/M04 A3033 RMK A01 T10201039  RH  087%=      5-min Rain = 0
KST2 090828Z 32008KT M02/M04 A3033 RMK A01 T10211039  RH  087%=      5-min Rain = 0
KST2 090829Z 32008KT M02/M04 A3033 RMK A01 T10211039  RH  087%=      5-min Rain = 0
KST2 090830Z 32008KT M02/M04 A3033 RMK A01 T10211039  RH  088%=      5-min Rain = 0
KST2 090831Z 32008KT M02/M04 A3033 RMK A01 T10211038  RH  088%=      5-min Rain = 0
KST2 090832Z 32008KT M02/M04 A3032 RMK A01 T10211038  RH  088%=      5-min Rain = 0
KST2 090833Z 32008KT M02/M04 A3032 RMK A01 T10211039  RH  088%=      5-min Rain = 0
KST2 090834Z 32007KT M02/M04 A3032 RMK A01 T10211039  RH  088%=      5-min Rain = 0
KST2 090835Z 32007KT M02/M04 A3032 RMK A01 T10211039  RH  088%=      5-min Rain = 0
KST2 090836Z 32007KT M02/M04 A3032 RMK A01 T10221039  RH  088%=      5-min Rain = 0
KST2 090837Z 32007KT M02/M04 A3032 RMK A01 T10221039  RH  088%=      5-min Rain = 0
KST2 090838Z 32007KT M02/M04 A3032 RMK A01 T10221039  RH  088%=      5-min Rain = 0
KST2 090839Z 32008KT M02/M04 A3032 RMK A01 T10221039  RH  089%=      5-min Rain = 0
KST2 090840Z 32007KT M02/M04 A3032 RMK A01 T10231039  RH  089%=      5-min Rain = 0
KST2 090841Z 32007KT M02/M04 A3032 RMK A01 T10231039  RH  089%=      5-min Rain = 0
KST2 090842Z 32008KT M02/M04 A3032 RMK A01 T10231039  RH  089%=      5-min Rain = 0
KST2 090843Z 32007KT M02/M04 A3032 RMK A01 T10231039  RH  089%=      5-min Rain = 0
KST2 090844Z 32007KT M02/M04 A3032 RMK A01 T10231039  RH  089%=      5-min Rain = 0
KST2 090845Z 32007KT M02/M04 A3032 RMK A01 T10231039  RH  089%=      5-min Rain = 0
KST2 090846Z 33007KT M02/M04 A3032 RMK A01 T10241040  RH  089%=      5-min Rain = 0
KST2 090847Z 33007KT M02/M04 A3032 RMK A01 T10241040  RH  089%=      5-min Rain = 0
KST2 090848Z 33007KT M02/M04 A3032 RMK A01 T10241040  RH  089%=      5-min Rain = 0
KST2 090849Z 33007KT M02/M04 A3032 RMK A01 T10241040  RH  089%=      5-min Rain = 0
KST2 090850Z 33007KT M03/M04 A3032 RMK A01 T10251040  RH  089%=      5-min Rain = 0
KST2 090851Z 33008KT M03/M04 A3032 RMK A01 T10251040  RH  089%=      5-min Rain = 0
KST2 090852Z 33007KT M03/M04 A3032 RMK A01 T10251040  RH  089%=      5-min Rain = 0
KST2 090853Z 33007KT M03/M04 A3032 RMK A01 T10251040  RH  090%=      5-min Rain = 0
KST2 090854Z 33007KT M03/M04 A3032 RMK A01 T10261040  RH  090%=      5-min Rain = 0
KST2 090855Z 33007KT M03/M04 A3032 RMK A01 T10251040  RH  090%=      5-min Rain = 0
KST2 090856Z 33007KT M03/M04 A3032 RMK A01 T10261040  RH  090%=      5-min Rain = 0
KST2 090857Z 33007KT M03/M04 A3032 RMK A01 T10261040  RH  090%=      5-min Rain = 0
KST2 090858Z 33007KT M03/M04 A3032 RMK A01 T10261041  RH  089%=      5-min Rain = 0
KST2 090859Z 32008KT M03/M04 A3032 RMK A01 T10251041  RH  089%=      5-min Rain = 0
KST2 090900Z 33007KT M03/M04 A3032 RMK A01 T10261041  RH  089%=      5-min Rain = 0
KST2 090901Z 33007KT M03/M04 A3032 RMK A01 T10261041  RH  090%=      5-min Rain = 0
KST2 090902Z 33007KT M03/M04 A3032 RMK A01 T10261041  RH  090%=      5-min Rain = 0
KST2 090903Z 33006KT M03/M04 A3032 RMK A01 T10271041  RH  090%=      5-min Rain = 0
KST2 090904Z 33006KT M03/M04 A3032 RMK A01 T10271041  RH  090%=      5-min Rain = 0
KST2 090905Z 33006KT M03/M04 A3032 RMK A01 T10271041  RH  090%=      5-min Rain = 0
KST2 090906Z 33007KT M03/M04 A3032 RMK A01 T10281042  RH  090%=      5-min Rain = 0
KST2 090907Z 33006KT M03/M04 A3032 RMK A01 T10281042  RH  090%=      5-min Rain = 0
KST2 090908Z 33006KT M03/M04 A3032 RMK A01 T10281042  RH  090%=      5-min Rain = 0
KST2 090909Z 33007KT M03/M04 A3032 RMK A01 T10281041  RH  090%=      5-min Rain = 0
KST2 090910Z 33007KT M03/M04 A3032 RMK A01 T10281042  RH  090%=      5-min Rain = 0
KST2 090911Z 33007KT M03/M04 A3032 RMK A01 T10281042  RH  090%=      5-min Rain = 0
KST2 090912Z 33006KT M03/M04 A3032 RMK A01 T10281042  RH  090%=      5-min Rain = 0
KST2 090913Z 33006KT M03/M04 A3032 RMK A01 T10291042  RH  090%=      5-min Rain = 0
KST2 090914Z 33007KT M03/M04 A3032 RMK A01 T10291042  RH  091%=      5-min Rain = 0
KST2 090915Z 33006KT M03/M04 A3032 RMK A01 T10291042  RH  091%=      5-min Rain = 0
KST2 090916Z 33006KT M03/M04 A3032 RMK A01 T10291042  RH  091%=      5-min Rain = 0
KST2 090917Z 33006KT M03/M04 A3032 RMK A01 T10291042  RH  091%=      5-min Rain = 0
KST2 090918Z 33006KT M03/M04 A3032 RMK A01 T10301042  RH  091%=      5-min Rain = 0
KST2 090919Z 33006KT M03/M04 A3032 RMK A01 T10301043  RH  091%=      5-min Rain = 0
KST2 090920Z 33006KT M03/M04 A3032 RMK A01 T10301043  RH  091%=      5-min Rain = 0
KST2 090921Z 33006KT M03/M04 A3032 RMK A01 T10301043  RH  091%=      5-min Rain = 0
KST2 090922Z 34007KT M03/M04 A3032 RMK A01 T10301043  RH  091%=      5-min Rain = 0
KST2 090923Z 33006KT M03/M04 A3032 RMK A01 T10311043  RH  091%=      5-min Rain = 0
KST2 090924Z 34007KT M03/M04 A3032 RMK A01 T10311043  RH  091%=      5-min Rain = 0
KST2 090925Z 33007KT M03/M04 A3032 RMK A01 T10311043  RH  091%=      5-min Rain = 0
KST2 090926Z 33007KT M03/M04 A3032 RMK A01 T10311043  RH  092%=      5-min Rain = 0
KST2 090927Z 34007KT M03/M04 A3032 RMK A01 T10321044  RH  092%=      5-min Rain = 0
KST2 090928Z 34007KT M03/M04 A3032 RMK A01 T10321043  RH  092%=      5-min Rain = 0
KST2 090929Z 34007KT M03/M04 A3032 RMK A01 T10321043  RH  092%=      5-min Rain = 0
KST2 090930Z 34007KT M03/M04 A3032 RMK A01 T10321044  RH  092%=      5-min Rain = 0
KST2 090931Z 34006KT M03/M04 A3032 RMK A01 T10321044  RH  092%=      5-min Rain = 0
KST2 090932Z 33007KT M03/M04 A3032 RMK A01 T10321044  RH  092%=      5-min Rain = 0
KST2 090933Z 33007KT M03/M04 A3032 RMK A01 T10321044  RH  092%=      5-min Rain = 0
KST2 090934Z 33007KT M03/M04 A3032 RMK A01 T10321044  RH  091%=      5-min Rain = 0
KST2 090935Z 32007KT M03/M04 A3032 RMK A01 T10321044  RH  091%=      5-min Rain = 0
KST2 090936Z 32008KT M03/M04 A3032 RMK A01 T10321044  RH  091%=      5-min Rain = 0
KST2 090937Z 32008KT M03/M04 A3032 RMK A01 T10311044  RH  091%=      5-min Rain = 0
KST2 090938Z 32007KT M03/M04 A3032 RMK A01 T10311044  RH  091%=      5-min Rain = 0
KST2 090939Z 32007KT M03/M04 A3032 RMK A01 T10311044  RH  091%=      5-min Rain = 0
KST2 090940Z 32007KT M03/M04 A3032 RMK A01 T10311044  RH  091%=      5-min Rain = 0
KST2 090941Z 32007KT M03/M05 A3032 RMK A01 T10321045  RH  091%=      5-min Rain = 0
KST2 090942Z 32006KT M03/M05 A3032 RMK A01 T10321045  RH  091%=      5-min Rain = 0
KST2 090943Z 32006KT M03/M05 A3032 RMK A01 T10321045  RH  091%=      5-min Rain = 0
KST2 090944Z 32006KT M03/M05 A3032 RMK A01 T10321045  RH  091%=      5-min Rain = 0
KST2 090945Z 32006KT M03/M05 A3032 RMK A01 T10331045  RH  091%=      5-min Rain = 0
KST2 090946Z 32006KT M03/M05 A3032 RMK A01 T10331045  RH  091%=      5-min Rain = 0
KST2 090947Z 32007KT M03/M05 A3032 RMK A01 T10331045  RH  091%=      5-min Rain = 0
KST2 090948Z 32007KT M03/M05 A3032 RMK A01 T10341046  RH  092%=      5-min Rain = 0
KST2 090949Z 31007KT M03/M05 A3032 RMK A01 T10341046  RH  092%=      5-min Rain = 0
KST2 090950Z 31007KT M03/M05 A3032 RMK A01 T10341046  RH  092%=      5-min Rain = 0
KST2 090951Z 32007KT M03/M05 A3032 RMK A01 T10341046  RH  092%=      5-min Rain = 0
KST2 090952Z 32006KT M03/M05 A3032 RMK A01 T10341046  RH  092%=      5-min Rain = 0
KST2 090953Z 32006KT M03/M05 A3032 RMK A01 T10341046  RH  092%=      5-min Rain = 0
KST2 090954Z 31006KT M04/M05 A3032 RMK A01 T10351046  RH  092%=      5-min Rain = 0
KST2 090955Z 31006KT M04/M05 A3032 RMK A01 T10351046  RH  092%=      5-min Rain = 0
KST2 090956Z 31006KT M04/M05 A3032 RMK A01 T10351047  RH  092%=      5-min Rain = 0
KST2 090957Z 31006KT M04/M05 A3032 RMK A01 T10351047  RH  092%=      5-min Rain = 0
KST2 090958Z 31006KT M04/M05 A3032 RMK A01 T10351047  RH  092%=      5-min Rain = 0
KST2 090959Z 31006KT M04/M05 A3032 RMK A01 T10351047  RH  092%=      5-min Rain = 0
KST2 091000Z 31007KT M04/M05 A3032 RMK A01 T10361047  RH  092%=      5-min Rain = 0
KST2 091001Z 31007KT M04/M05 A3032 RMK A01 T10351047  RH  092%=      5-min Rain = 0
KST2 091002Z 31007KT M04/M05 A3032 RMK A01 T10361047  RH  092%=      5-min Rain = 0
KST2 091003Z 31006KT M04/M05 A3032 RMK A01 T10361047  RH  091%=      5-min Rain = 0
KST2 091004Z 31006KT M04/M05 A3032 RMK A01 T10361048  RH  091%=      5-min Rain = 0
KST2 091005Z 31007KT M04/M05 A3032 RMK A01 T10351047  RH  091%=      5-min Rain = 0
KST2 091006Z 31007KT M04/M05 A3032 RMK A01 T10351047  RH  091%=      5-min Rain = 0
KST2 091007Z 31007KT M04/M05 A3032 RMK A01 T10351047  RH  091%=      5-min Rain = 0
KST2 091008Z 31007KT M04/M05 A3032 RMK A01 T10351048  RH  091%=      5-min Rain = 0
KST2 091009Z 31006KT M04/M05 A3032 RMK A01 T10351048  RH  091%=      5-min Rain = 0
KST2 091010Z 31007KT M04/M05 A3033 RMK A01 T10351048  RH  091%=      5-min Rain = 0
KST2 091011Z 31006KT M04/M05 A3033 RMK A01 T10351048  RH  091%=      5-min Rain = 0
KST2 091012Z 30006KT M04/M05 A3033 RMK A01 T10351048  RH  091%=      5-min Rain = 0
KST2 091013Z 30006KT M04/M05 A3033 RMK A01 T10351048  RH  091%=      5-min Rain = 0
KST2 091014Z 30006KT M04/M05 A3032 RMK A01 T10351048  RH  091%=      5-min Rain = 0
KST2 091015Z 30006KT M04/M05 A3032 RMK A01 T10351048  RH  091%=      5-min Rain = 0
KST2 091016Z 31006KT M04/M05 A3032 RMK A01 T10351049  RH  091%=      5-min Rain = 0
KST2 091017Z 31005KT M04/M05 A3032 RMK A01 T10351048  RH  091%=      5-min Rain = 0
KST2 091018Z 31006KT M04/M05 A3032 RMK A01 T10351048  RH  091%=      5-min Rain = 0
KST2 091019Z 31005KT M04/M05 A3032 RMK A01 T10351048  RH  091%=      5-min Rain = 0
KST2 091020Z 31006KT M04/M05 A3032 RMK A01 T10351048  RH  091%=      5-min Rain = 0
KST2 091021Z 31006KT M04/M05 A3032 RMK A01 T10351048  RH  091%=      5-min Rain = 0
KST2 091022Z 30006KT M04/M05 A3033 RMK A01 T10351048  RH  091%=      5-min Rain = 0
KST2 091023Z 30006KT M04/M05 A3032 RMK A01 T10351049  RH  091%=      5-min Rain = 0
KST2 091024Z 31006KT M04/M05 A3033 RMK A01 T10351049  RH  090%=      5-min Rain = 0
KST2 091025Z 31006KT M04/M05 A3032 RMK A01 T10351049  RH  090%=      5-min Rain = 0
KST2 091026Z 31005KT M04/M05 A3032 RMK A01 T10351049  RH  090%=      5-min Rain = 0
KST2 091027Z 31005KT M04/M05 A3032 RMK A01 T10351049  RH  090%=      5-min Rain = 0
KST2 091028Z 31006KT M04/M05 A3032 RMK A01 T10351049  RH  090%=      5-min Rain = 0
KST2 091029Z 31006KT M04/M05 A3032 RMK A01 T10351049  RH  090%=      5-min Rain = 0
KST2 091030Z 31006KT M04/M05 A3032 RMK A01 T10351049  RH  090%=      5-min Rain = 0
KST2 091031Z 31006KT M04/M05 A3032 RMK A01 T10351048  RH  090%=      5-min Rain = 0
KST2 091032Z 31006KT M04/M05 A3032 RMK A01 T10351049  RH  090%=      5-min Rain = 0
KST2 091033Z 32006KT M04/M05 A3032 RMK A01 T10351049  RH  090%=      5-min Rain = 0
KST2 091034Z 32006KT M04/M05 A3032 RMK A01 T10351049  RH  090%=      5-min Rain = 0
KST2 091035Z 32007KT M04/M05 A3032 RMK A01 T10351049  RH  090%=      5-min Rain = 0
KST2 091036Z 32007KT M03/M05 A3032 RMK A01 T10341050  RH  089%=      5-min Rain = 0
KST2 091037Z 32006KT M04/M05 A3032 RMK A01 T10351050  RH  089%=      5-min Rain = 0
KST2 091038Z 32007KT M04/M05 A3033 RMK A01 T10351050  RH  089%=      5-min Rain = 0
KST2 091039Z 32006KT M03/M05 A3033 RMK A01 T10341050  RH  089%=      5-min Rain = 0
KST2 091040Z 32007KT M03/M05 A3033 RMK A01 T10341049  RH  089%=      5-min Rain = 0
KST2 091041Z 32007KT M03/M05 A3033 RMK A01 T10331049  RH  089%=      5-min Rain = 0
KST2 091042Z 32007KT M03/M05 A3033 RMK A01 T10331049  RH  089%=      5-min Rain = 0
KST2 091043Z 32007KT M03/M05 A3033 RMK A01 T10331049  RH  088%=      5-min Rain = 0
KST2 091044Z 32007KT M03/M05 A3033 RMK A01 T10321049  RH  088%=      5-min Rain = 0
KST2 091045Z 32008KT M03/M05 A3033 RMK A01 T10321050  RH  087%=      5-min Rain = 0
KST2 091046Z 32008KT M03/M05 A3033 RMK A01 T10311050  RH  087%=      5-min Rain = 0
KST2 091047Z 32008KT M03/M05 A3033 RMK A01 T10311050  RH  087%=      5-min Rain = 0
KST2 091048Z 32008KT M03/M05 A3033 RMK A01 T10311050  RH  087%=      5-min Rain = 0
KST2 091049Z 32008KT M03/M05 A3033 RMK A01 T10311050  RH  087%=      5-min Rain = 0
KST2 091050Z 32008KT M03/M05 A3033 RMK A01 T10311049  RH  087%=      5-min Rain = 0
KST2 091051Z 32008KT M03/M05 A3033 RMK A01 T10311049  RH  087%=      5-min Rain = 0
KST2 091052Z 32008KT M03/M05 A3033 RMK A01 T10301049  RH  087%=      5-min Rain = 0
KST2 091053Z 31008KT M03/M05 A3033 RMK A01 T10301049  RH  087%=      5-min Rain = 0
KST2 091054Z 31008KT M03/M05 A3033 RMK A01 T10301049  RH  087%=      5-min Rain = 0
KST2 091055Z 32008KT M03/M05 A3033 RMK A01 T10301049  RH  087%=      5-min Rain = 0
KST2 091056Z 31008KT M03/M05 A3033 RMK A01 T10301049  RH  087%=      5-min Rain = 0
KST2 091057Z 31008KT M03/M05 A3033 RMK A01 T10301050  RH  087%=      5-min Rain = 0
KST2 091058Z 32007KT M03/M05 A3033 RMK A01 T10311050  RH  087%=      5-min Rain = 0
KST2 091059Z 31008KT M03/M05 A3033 RMK A01 T10311050  RH  087%=      5-min Rain = 0
KST2 091100Z 31008KT M03/M05 A3033 RMK A01 T10311050  RH  087%=      5-min Rain = 0
KST2 091101Z 31008KT M03/M05 A3033 RMK A01 T10321050  RH  087%=      5-min Rain = 0
KST2 091102Z 31008KT M03/M05 A3033 RMK A01 T10321050  RH  087%=      5-min Rain = 0
KST2 091103Z 31008KT M03/M05 A3033 RMK A01 T10321051  RH  087%=      5-min Rain = 0
KST2 091104Z 31008KT M03/M05 A3033 RMK A01 T10321051  RH  087%=      5-min Rain = 0
KST2 091105Z 31009KT M03/M05 A3033 RMK A01 T10321051  RH  087%=      5-min Rain = 0
KST2 091106Z 31009KT M03/M05 A3033 RMK A01 T10331051  RH  087%=      5-min Rain = 0
KST2 091107Z 31009KT M03/M05 A3033 RMK A01 T10321051  RH  087%=      5-min Rain = 0
KST2 091108Z 31009KT M03/M05 A3033 RMK A01 T10321051  RH  087%=      5-min Rain = 0
KST2 091109Z 31008KT M03/M05 A3033 RMK A01 T10331051  RH  087%=      5-min Rain = 0
KST2 091110Z 31008KT M03/M05 A3033 RMK A01 T10331051  RH  087%=      5-min Rain = 0
KST2 091111Z 31008KT M03/M05 A3033 RMK A01 T10331051  RH  087%=      5-min Rain = 0
KST2 091112Z 31009KT M03/M05 A3033 RMK A01 T10331051  RH  087%=      5-min Rain = 0
KST2 091113Z 31008KT M03/M05 A3033 RMK A01 T10331051  RH  087%=      5-min Rain = 0
KST2 091114Z 31008KT M03/M05 A3034 RMK A01 T10331051  RH  087%=      5-min Rain = 0
KST2 091115Z 31008KT M03/M05 A3034 RMK A01 T10331051  RH  087%=      5-min Rain = 0
KST2 091116Z 31008KT M03/M05 A3034 RMK A01 T10331051  RH  087%=      5-min Rain = 0
KST2 091117Z 31008KT M03/M05 A3034 RMK A01 T10331051  RH  087%=      5-min Rain = 0
KST2 091118Z 32008KT M03/M05 A3034 RMK A01 T10331051  RH  087%=      5-min Rain = 0
KST2 091119Z 32008KT M03/M05 A3034 RMK A01 T10331050  RH  087%=      5-min Rain = 0
KST2 091120Z 31008KT M03/M05 A3034 RMK A01 T10331051  RH  087%=      5-min Rain = 0
KST2 091121Z 31009KT M03/M05 A3034 RMK A01 T10331051  RH  087%=      5-min Rain = 0
KST2 091122Z 31009KT M03/M05 A3034 RMK A01 T10331051  RH  087%=      5-min Rain = 0
KST2 091123Z 31008KT M03/M05 A3034 RMK A01 T10331051  RH  087%=      5-min Rain = 0
KST2 091124Z 31008KT M03/M05 A3034 RMK A01 T10331051  RH  087%=      5-min Rain = 0
KST2 091125Z 32008KT M03/M05 A3034 RMK A01 T10331051  RH  087%=      5-min Rain = 0
KST2 091126Z 31008KT M03/M05 A3034 RMK A01 T10331051  RH  087%=      5-min Rain = 0
KST2 091127Z 31008KT M03/M05 A3034 RMK A01 T10331051  RH  087%=      5-min Rain = 0
KST2 091128Z 31008KT M03/M05 A3034 RMK A01 T10331051  RH  087%=      5-min Rain = 0
KST2 091129Z 31008KT M03/M05 A3034 RMK A01 T10331051  RH  087%=      5-min Rain = 0
KST2 091130Z 31008KT M03/M05 A3034 RMK A01 T10331051  RH  087%=      5-min Rain = 0
KST2 091131Z 31008KT M03/M05 A3034 RMK A01 T10331051  RH  087%=      5-min Rain = 0
KST2 091132Z 31007KT M03/M05 A3034 RMK A01 T10331052  RH  087%=      5-min Rain = 0
KST2 091133Z 31008KT M03/M05 A3034 RMK A01 T10321051  RH  087%=      5-min Rain = 0
KST2 091134Z 32007KT M03/M05 A3034 RMK A01 T10321051  RH  087%=      5-min Rain = 0
KST2 091135Z 31008KT M03/M05 A3034 RMK A01 T10321051  RH  087%=      5-min Rain = 0
KST2 091136Z 31008KT M03/M05 A3034 RMK A01 T10321052  RH  087%=      5-min Rain = 0
KST2 091137Z 31008KT M03/M05 A3034 RMK A01 T10321052  RH  087%=      5-min Rain = 0
KST2 091138Z 31007KT M03/M05 A3034 RMK A01 T10331052  RH  087%=      5-min Rain = 0
KST2 091139Z 31008KT M03/M05 A3034 RMK A01 T10321052  RH  087%=      5-min Rain = 0
KST2 091140Z 31008KT M03/M05 A3034 RMK A01 T10321052  RH  087%=      5-min Rain = 0
KST2 091141Z 31008KT M03/M05 A3034 RMK A01 T10321052  RH  086%=      5-min Rain = 0
KST2 091142Z 31008KT M03/M05 A3034 RMK A01 T10321052  RH  086%=      5-min Rain = 0
KST2 091143Z 31008KT M03/M05 A3034 RMK A01 T10321052  RH  086%=      5-min Rain = 0
KST2 091144Z 31009KT M03/M05 A3035 RMK A01 T10321052  RH  086%=      5-min Rain = 0
KST2 091145Z 31009KT M03/M05 A3035 RMK A01 T10321052  RH  086%=      5-min Rain = 0
KST2 091146Z 32009KT M03/M05 A3035 RMK A01 T10311052  RH  086%=      5-min Rain = 0
KST2 091147Z 32008KT M03/M05 A3035 RMK A01 T10311052  RH  085%=      5-min Rain = 0
KST2 091148Z 31009KT M03/M05 A3035 RMK A01 T10311052  RH  085%=      5-min Rain = 0
KST2 091149Z 31008KT M03/M05 A3035 RMK A01 T10311052  RH  085%=      5-min Rain = 0
KST2 091150Z 31008KT M03/M05 A3035 RMK A01 T10311052  RH  085%=      5-min Rain = 0
KST2 091151Z 31008KT M03/M05 A3035 RMK A01 T10311053  RH  085%=      5-min Rain = 0
KST2 091152Z 31008KT M03/M05 A3035 RMK A01 T10311053  RH  085%=      5-min Rain = 0
KST2 091153Z 31009KT M03/M05 A3035 RMK A01 T10311053  RH  085%=      5-min Rain = 0
KST2 091154Z 32008KT M03/M05 A3035 RMK A01 T10311053  RH  085%=      5-min Rain = 0
KST2 091155Z 32007KT M03/M05 A3035 RMK A01 T10311053  RH  085%=      5-min Rain = 0
KST2 091156Z 31008KT M03/M05 A3035 RMK A01 T10311053  RH  085%=      5-min Rain = 0
KST2 091157Z 32008KT M03/M05 A3035 RMK A01 T10321053  RH  085%=      5-min Rain = 0
KST2 091158Z 32008KT M03/M05 A3035 RMK A01 T10321053  RH  085%=      5-min Rain = 0
KST2 091159Z 32008KT M03/M05 A3035 RMK A01 T10321053  RH  085%=      5-min Rain = 0
KST2 091200Z 32008KT M03/M05 A3035 RMK A01 T10321054  RH  085%=      5-min Rain = 0
KST2 091201Z 32007KT M03/M05 A3035 RMK A01 T10321053  RH  085%=      5-min Rain = 0
KST2 091202Z 32007KT M03/M05 A3035 RMK A01 T10321053  RH  086%=      5-min Rain = 0
KST2 091203Z 32008KT M03/M05 A3035 RMK A01 T10321053  RH  086%=      5-min Rain = 0
KST2 091204Z 32007KT M03/M05 A3035 RMK A01 T10321053  RH  085%=      5-min Rain = 0
KST2 091205Z 32007KT M03/M05 A3035 RMK A01 T10321054  RH  085%=      5-min Rain = 0
KST2 091206Z 32008KT M03/M05 A3035 RMK A01 T10321054  RH  085%=      5-min Rain = 0
KST2 091207Z 32007KT M03/M05 A3035 RMK A01 T10321054  RH  085%=      5-min Rain = 0
KST2 091208Z 32008KT M03/M05 A3035 RMK A01 T10321054  RH  085%=      5-min Rain = 0
KST2 091209Z 32008KT M03/M05 A3035 RMK A01 T10321054  RH  085%=      5-min Rain = 0
KST2 091210Z 32008KT M03/M05 A3035 RMK A01 T10321054  RH  085%=      5-min Rain = 0
KST2 091211Z 32008KT M03/M05 A3035 RMK A01 T10321054  RH  085%=      5-min Rain = 0
KST2 091212Z 32008KT M03/M05 A3035 RMK A01 T10321054  RH  085%=      5-min Rain = 0
KST2 091213Z 32008KT M03/M05 A3035 RMK A01 T10321054  RH  085%=      5-min Rain = 0
KST2 091214Z 32008KT M03/M05 A3035 RMK A01 T10321054  RH  085%=      5-min Rain = 0
KST2 091215Z 32008KT M03/M05 A3035 RMK A01 T10321054  RH  084%=      5-min Rain = 0
KST2 091216Z 32008KT M03/M05 A3035 RMK A01 T10321054  RH  085%=      5-min Rain = 0
KST2 091217Z 32008KT M03/M05 A3035 RMK A01 T10321054  RH  085%=      5-min Rain = 0
KST2 091218Z 32008KT M03/M05 A3035 RMK A01 T10321054  RH  085%=      5-min Rain = 0
KST2 091219Z 32008KT M03/M05 A3035 RMK A01 T10321054  RH  085%=      5-min Rain = 0
KST2 091220Z 32009KT M03/M05 A3035 RMK A01 T10331054  RH  085%=      5-min Rain = 0
KST2 091221Z 32008KT M03/M05 A3035 RMK A01 T10321054  RH  085%=      5-min Rain = 0
KST2 091222Z 32008KT M03/M05 A3035 RMK A01 T10331054  RH  085%=      5-min Rain = 0
KST2 091223Z 32008KT M03/M06 A3036 RMK A01 T10321055  RH  085%=      5-min Rain = 0
KST2 091224Z 32008KT M03/M06 A3036 RMK A01 T10331055  RH  085%=      5-min Rain = 0
KST2 091225Z 32008KT M03/M06 A3036 RMK A01 T10331055  RH  085%=      5-min Rain = 0
KST2 091226Z 32008KT M03/M06 A3036 RMK A01 T10331056  RH  085%=      5-min Rain = 0
KST2 091227Z 32008KT M03/M06 A3036 RMK A01 T10331056  RH  085%=      5-min Rain = 0
KST2 091228Z 32008KT M03/M06 A3036 RMK A01 T10331055  RH  085%=      5-min Rain = 0
KST2 091229Z 32008KT M03/M06 A3036 RMK A01 T10331055  RH  085%=      5-min Rain = 0
KST2 091230Z 32008KT M03/M06 A3036 RMK A01 T10341055  RH  085%=      5-min Rain = 0
KST2 091231Z 32008KT M03/M06 A3036 RMK A01 T10341055  RH  085%=      5-min Rain = 0
KST2 091232Z 32007KT M03/M06 A3036 RMK A01 T10341055  RH  085%=      5-min Rain = 0
KST2 091233Z 32008KT M03/M06 A3036 RMK A01 T10341055  RH  085%=      5-min Rain = 0
KST2 091234Z 32007KT M03/M06 A3036 RMK A01 T10341056  RH  085%=      5-min Rain = 0
KST2 091235Z 32008KT M03/M06 A3036 RMK A01 T10341056  RH  085%=      5-min Rain = 0
KST2 091236Z 32008KT M04/M06 A3036 RMK A01 T10351056  RH  085%=      5-min Rain = 0
KST2 091237Z 32007KT M04/M06 A3036 RMK A01 T10351056  RH  085%=      5-min Rain = 0
KST2 091238Z 32008KT M04/M06 A3036 RMK A01 T10351056  RH  085%=      5-min Rain = 0
KST2 091239Z 32008KT M04/M06 A3036 RMK A01 T10351056  RH  085%=      5-min Rain = 0
KST2 091240Z 32008KT M04/M06 A3036 RMK A01 T10351056  RH  085%=      5-min Rain = 0
KST2 091241Z 33008KT M04/M06 A3036 RMK A01 T10351056  RH  085%=      5-min Rain = 0
KST2 091242Z 32008KT M04/M06 A3036 RMK A01 T10351056  RH  085%=      5-min Rain = 0
KST2 091243Z 33009KT M04/M06 A3036 RMK A01 T10361056  RH  086%=      5-min Rain = 0
KST2 091244Z 32008KT M04/M06 A3036 RMK A01 T10361056  RH  086%=      5-min Rain = 0
KST2 091245Z 33008KT M04/M06 A3036 RMK A01 T10361056  RH  086%=      5-min Rain = 0
KST2 091246Z 33008KT M04/M06 A3036 RMK A01 T10361057  RH  086%=      5-min Rain = 0
KST2 091247Z 33008KT M04/M06 A3036 RMK A01 T10361057  RH  085%=      5-min Rain = 0
KST2 091248Z 33008KT M04/M06 A3036 RMK A01 T10361057  RH  085%=      5-min Rain = 0
KST2 091249Z 33008KT M04/M06 A3037 RMK A01 T10361057  RH  085%=      5-min Rain = 0
KST2 091250Z 32008KT M04/M06 A3037 RMK A01 T10361057  RH  086%=      5-min Rain = 0
KST2 091251Z 32008KT M04/M06 A3037 RMK A01 T10371057  RH  086%=      5-min Rain = 0
KST2 091252Z 32008KT M04/M06 A3037 RMK A01 T10371057  RH  086%=      5-min Rain = 0
KST2 091253Z 32008KT M04/M06 A3037 RMK A01 T10371057  RH  086%=      5-min Rain = 0
KST2 091254Z 32008KT M04/M06 A3037 RMK A01 T10371058  RH  086%=      5-min Rain = 0
KST2 091255Z 33008KT M04/M06 A3037 RMK A01 T10371058  RH  086%=      5-min Rain = 0
KST2 091256Z 32009KT M04/M06 A3037 RMK A01 T10381058  RH  086%=      5-min Rain = 0
KST2 091257Z 33008KT M04/M06 A3037 RMK A01 T10371058  RH  086%=      5-min Rain = 0
KST2 091258Z 32008KT M04/M06 A3037 RMK A01 T10371058  RH  086%=      5-min Rain = 0
KST2 091259Z 33008KT M04/M06 A3037 RMK A01 T10381058  RH  086%=      5-min Rain = 0
KST2 091300Z 32008KT M04/M06 A3037 RMK A01 T10381058  RH  086%=      5-min Rain = 0
KST2 091301Z 32008KT M04/M06 A3037 RMK A01 T10381058  RH  086%=      5-min Rain = 0
KST2 091302Z 32008KT M04/M06 A3037 RMK A01 T10381058  RH  086%=      5-min Rain = 0
KST2 091303Z 32008KT M04/M06 A3037 RMK A01 T10381058  RH  086%=      5-min Rain = 0
KST2 091304Z 32008KT M04/M06 A3037 RMK A01 T10391058  RH  086%=      5-min Rain = 0
KST2 091305Z 32008KT M04/M06 A3037 RMK A01 T10391058  RH  086%=      5-min Rain = 0
KST2 091306Z 32008KT M04/M06 A3037 RMK A01 T10391058  RH  086%=      5-min Rain = 0
KST2 091307Z 32007KT M04/M06 A3037 RMK A01 T10391059  RH  086%=      5-min Rain = 0
KST2 091308Z 32007KT M04/M06 A3037 RMK A01 T10391059  RH  086%=      5-min Rain = 0
KST2 091309Z 32007KT M04/M06 A3037 RMK A01 T10391059  RH  086%=      5-min Rain = 0
KST2 091310Z 32007KT M04/M06 A3037 RMK A01 T10391059  RH  086%=      5-min Rain = 0
KST2 091311Z 32007KT M04/M06 A3037 RMK A01 T10391059  RH  086%=      5-min Rain = 0
KST2 091312Z 32007KT M04/M06 A3037 RMK A01 T10391059  RH  086%=      5-min Rain = 0
KST2 091313Z 32007KT M04/M06 A3037 RMK A01 T10391059  RH  086%=      5-min Rain = 0
KST2 091314Z 32007KT M04/M06 A3037 RMK A01 T10391059  RH  086%=      5-min Rain = 0
KST2 091315Z 32007KT M04/M06 A3037 RMK A01 T10391059  RH  086%=      5-min Rain = 0
KST2 091316Z 32007KT M04/M06 A3037 RMK A01 T10391059  RH  086%=      5-min Rain = 0
KST2 091317Z 32007KT M04/M06 A3037 RMK A01 T10391059  RH  086%=      5-min Rain = 0
KST2 091318Z 32008KT M04/M06 A3037 RMK A01 T10391059  RH  086%=      5-min Rain = 0
KST2 091319Z 32008KT M04/M06 A3037 RMK A01 T10391059  RH  086%=      5-min Rain = 0
KST2 091320Z 32007KT M04/M06 A3037 RMK A01 T10391059  RH  086%=      5-min Rain = 0
KST2 091321Z 32007KT M04/M06 A3037 RMK A01 T10391059  RH  086%=      5-min Rain = 0
KST2 091322Z 33008KT M04/M06 A3037 RMK A01 T10391060  RH  086%=      5-min Rain = 0
KST2 091323Z 33008KT M04/M06 A3037 RMK A01 T10391060  RH  085%=      5-min Rain = 0
KST2 091324Z 32008KT M04/M06 A3037 RMK A01 T10381060  RH  085%=      5-min Rain = 0
KST2 091325Z 32007KT M04/M06 A3037 RMK A01 T10391060  RH  085%=      5-min Rain = 0
KST2 091326Z 32008KT M04/M06 A3037 RMK A01 T10391060  RH  085%=      5-min Rain = 0
KST2 091327Z 32007KT M04/M06 A3037 RMK A01 T10391060  RH  085%=      5-min Rain = 0
KST2 091328Z 32007KT M04/M06 A3037 RMK A01 T10391060  RH  085%=      5-min Rain = 0
KST2 091329Z 32007KT M04/M06 A3038 RMK A01 T10391060  RH  085%=      5-min Rain = 0
KST2 091330Z 32008KT M04/M06 A3038 RMK A01 T10381060  RH  085%=      5-min Rain = 0
KST2 091331Z 32008KT M04/M06 A3038 RMK A01 T10381061  RH  084%=      5-min Rain = 0
KST2 091332Z 32007KT M04/M06 A3038 RMK A01 T10381061  RH  084%=      5-min Rain = 0
KST2 091333Z 32008KT M04/M06 A3038 RMK A01 T10381061  RH  084%=      5-min Rain = 0
KST2 091334Z 32008KT M04/M06 A3038 RMK A01 T10381061  RH  084%=      5-min Rain = 0
KST2 091335Z 32008KT M04/M06 A3037 RMK A01 T10381060  RH  085%=      5-min Rain = 0
KST2 091336Z 32008KT M04/M06 A3037 RMK A01 T10381060  RH  084%=      5-min Rain = 0
KST2 091337Z 32008KT M04/M06 A3038 RMK A01 T10381061  RH  084%=      5-min Rain = 0
KST2 091338Z 32008KT M04/M06 A3038 RMK A01 T10381060  RH  085%=      5-min Rain = 0
KST2 091339Z 32008KT M04/M06 A3038 RMK A01 T10371060  RH  084%=      5-min Rain = 0
KST2 091340Z 32008KT M04/M06 A3038 RMK A01 T10371061  RH  084%=      5-min Rain = 0
KST2 091341Z 33008KT M04/M06 A3038 RMK A01 T10371060  RH  084%=      5-min Rain = 0
KST2 091342Z 32008KT M04/M06 A3038 RMK A01 T10371060  RH  084%=      5-min Rain = 0
KST2 091343Z 32008KT M04/M06 A3038 RMK A01 T10371060  RH  084%=      5-min Rain = 0
KST2 091344Z 32008KT M04/M06 A3038 RMK A01 T10371060  RH  084%=      5-min Rain = 0
KST2 091345Z 32007KT M04/M06 A3038 RMK A01 T10371060  RH  084%=      5-min Rain = 0
KST2 091346Z 32007KT M04/M06 A3038 RMK A01 T10371060  RH  084%=      5-min Rain = 0
KST2 091347Z 33008KT M04/M06 A3038 RMK A01 T10371060  RH  084%=      5-min Rain = 0
KST2 091348Z 32007KT M04/M06 A3038 RMK A01 T10371060  RH  084%=      5-min Rain = 0
KST2 091349Z 32008KT M04/M06 A3038 RMK A01 T10371061  RH  083%=      5-min Rain = 0
KST2 091350Z 32008KT M04/M06 A3038 RMK A01 T10371061  RH  083%=      5-min Rain = 0
KST2 091351Z 32008KT M04/M06 A3038 RMK A01 T10361061  RH  083%=      5-min Rain = 0
KST2 091352Z 32007KT M04/M06 A3038 RMK A01 T10361061  RH  083%=      5-min Rain = 0
KST2 091353Z 32007KT M04/M06 A3038 RMK A01 T10361061  RH  083%=      5-min Rain = 0
KST2 091354Z 32008KT M04/M06 A3038 RMK A01 T10361060  RH  083%=      5-min Rain = 0
KST2 091355Z 32008KT M04/M06 A3038 RMK A01 T10361061  RH  083%=      5-min Rain = 0
KST2 091356Z 32008KT M04/M06 A3038 RMK A01 T10361061  RH  083%=      5-min Rain = 0
KST2 091357Z 32008KT M04/M06 A3038 RMK A01 T10361061  RH  083%=      5-min Rain = 0
KST2 091358Z 32009KT M04/M06 A3038 RMK A01 T10361061  RH  083%=      5-min Rain = 0
KST2 091359Z 32008KT M04/M06 A3038 RMK A01 T10361062  RH  082%=      5-min Rain = 0
KST2 091400Z 32009KT M04/M06 A3038 RMK A01 T10351061  RH  082%=      5-min Rain = 0
KST2 091401Z 32009KT M04/M06 A3038 RMK A01 T10351061  RH  082%=      5-min Rain = 0
KST2 091402Z 32008KT M04/M06 A3038 RMK A01 T10351060  RH  083%=      5-min Rain = 0
KST2 091403Z 32008KT M04/M06 A3038 RMK A01 T10351060  RH  083%=      5-min Rain = 0
KST2 091404Z 32009KT M04/M06 A3039 RMK A01 T10351060  RH  083%=      5-min Rain = 0
KST2 091405Z 32008KT M04/M06 A3039 RMK A01 T10351060  RH  083%=      5-min Rain = 0
KST2 091406Z 32009KT M04/M06 A3039 RMK A01 T10361060  RH  083%=      5-min Rain = 0
KST2 091407Z 31009KT M04/M06 A3039 RMK A01 T10351060  RH  083%=      5-min Rain = 0
KST2 091408Z 32009KT M04/M06 A3039 RMK A01 T10361060  RH  083%=      5-min Rain = 0
KST2 091409Z 31008KT M04/M06 A3039 RMK A01 T10361061  RH  083%=      5-min Rain = 0
KST2 091410Z 31009KT M04/M06 A3039 RMK A01 T10361061  RH  083%=      5-min Rain = 0
KST2 091411Z 31009KT M04/M06 A3039 RMK A01 T10361062  RH  083%=      5-min Rain = 0
KST2 091412Z 32008KT M04/M06 A3039 RMK A01 T10361063  RH  082%=      5-min Rain = 0
KST2 091413Z 31008KT M04/M06 A3039 RMK A01 T10361063  RH  082%=      5-min Rain = 0
KST2 091414Z 31008KT M04/M06 A3039 RMK A01 T10361062  RH  082%=      5-min Rain = 0
KST2 091415Z 31008KT M04/M06 A3039 RMK A01 T10361062  RH  082%=      5-min Rain = 0
KST2 091416Z 31009KT M04/M06 A3039 RMK A01 T10361062  RH  082%=      5-min Rain = 0
KST2 091417Z 31009KT M04/M06 A3039 RMK A01 T10361062  RH  082%=      5-min Rain = 0
KST2 091418Z 31009KT M04/M06 A3039 RMK A01 T10351062  RH  082%=      5-min Rain = 0
KST2 091419Z 31009KT M04/M06 A3039 RMK A01 T10351062  RH  082%=      5-min Rain = 0
KST2 091420Z 31009KT M04/M06 A3039 RMK A01 T10351062  RH  082%=      5-min Rain = 0
KST2 091421Z 31009KT M04/M06 A3039 RMK A01 T10351061  RH  082%=      5-min Rain = 0
KST2 091422Z 31008KT M04/M06 A3039 RMK A01 T10351061  RH  082%=      5-min Rain = 0
KST2 091423Z 31008KT M03/M06 A3039 RMK A01 T10341060  RH  082%=      5-min Rain = 0
KST2 091424Z 31009KT M03/M06 A3039 RMK A01 T10341060  RH  082%=      5-min Rain = 0
KST2 091425Z 31009KT M03/M06 A3039 RMK A01 T10331060  RH  082%=      5-min Rain = 0
KST2 091426Z 31008KT M03/M06 A3039 RMK A01 T10331060  RH  082%=      5-min Rain = 0
KST2 091427Z 31009KT M03/M06 A3039 RMK A01 T10331059  RH  082%=      5-min Rain = 0
KST2 091428Z 31010KT M03/M06 A3039 RMK A01 T10321059  RH  082%=      5-min Rain = 0
KST2 091429Z 31009KT M03/M06 A3039 RMK A01 T10321060  RH  081%=      5-min Rain = 0
KST2 091430Z 31009KT M03/M06 A3039 RMK A01 T10311059  RH  081%=      5-min Rain = 0
KST2 091431Z 31009KT M03/M06 A304 RMK A01 T10311060  RH  081%=      5-min Rain = 0
KST2 091432Z 31009KT M03/M06 A304 RMK A01 T10311060  RH  081%=      5-min Rain = 0
KST2 091433Z 31009KT M03/M06 A304 RMK A01 T10311061  RH  080%=      5-min Rain = 0
KST2 091434Z 31009KT M03/M06 A304 RMK A01 T10311061  RH  080%=      5-min Rain = 0
KST2 091435Z 31009KT M03/M06 A304 RMK A01 T10311061  RH  080%=      5-min Rain = 0
KST2 091436Z 32009KT M03/M06 A304 RMK A01 T10321062  RH  080%=      5-min Rain = 0
KST2 091437Z 32009KT M03/M06 A304 RMK A01 T10311061  RH  080%=      5-min Rain = 0
KST2 091438Z 32009KT M03/M06 A304 RMK A01 T10311061  RH  080%=      5-min Rain = 0
KST2 091439Z 31009KT M03/M06 A304 RMK A01 T10321061  RH  080%=      5-min Rain = 0
KST2 091440Z 31009KT M03/M06 A304 RMK A01 T10311061  RH  080%=      5-min Rain = 0
KST2 091441Z 31008KT M03/M06 A304 RMK A01 T10311062  RH  079%=      5-min Rain = 0
KST2 091442Z 31008KT M03/M06 A304 RMK A01 T10311062  RH  080%=      5-min Rain = 0
KST2 091443Z 31008KT M03/M06 A304 RMK A01 T10311061  RH  080%=      5-min Rain = 0
KST2 091444Z 31009KT M03/M06 A304 RMK A01 T10311061  RH  080%=      5-min Rain = 0
KST2 091445Z 31008KT M03/M06 A304 RMK A01 T10311062  RH  079%=      5-min Rain = 0
KST2 091446Z 31008KT M03/M06 A304 RMK A01 T10311062  RH  079%=      5-min Rain = 0
KST2 091447Z 31008KT M03/M06 A304 RMK A01 T10301061  RH  080%=      5-min Rain = 0
KST2 091448Z 31007KT M03/M06 A304 RMK A01 T10301061  RH  079%=      5-min Rain = 0
KST2 091449Z 31008KT M03/M06 A304 RMK A01 T10301061  RH  080%=      5-min Rain = 0
KST2 091450Z 31008KT M03/M06 A304 RMK A01 T10311061  RH  080%=      5-min Rain = 0
KST2 091451Z 31008KT M03/M06 A304 RMK A01 T10301061  RH  079%=      5-min Rain = 0
KST2 091452Z 31008KT M03/M06 A304 RMK A01 T10311061  RH  079%=      5-min Rain = 0
KST2 091453Z 31007KT M03/M06 A304 RMK A01 T10311061  RH  080%=      5-min Rain = 0
KST2 091454Z 31008KT M03/M06 A304 RMK A01 T10301060  RH  080%=      5-min Rain = 0
KST2 091455Z 31007KT M03/M06 A304 RMK A01 T10301060  RH  080%=      5-min Rain = 0
KST2 091456Z 31009KT M03/M06 A304 RMK A01 T10301060  RH  080%=      5-min Rain = 0
KST2 091457Z 31009KT M03/M06 A304 RMK A01 T10301060  RH  079%=      5-min Rain = 0
KST2 091458Z 31008KT M03/M06 A304 RMK A01 T10301060  RH  080%=      5-min Rain = 0
KST2 091459Z 31008KT M03/M06 A304 RMK A01 T10291060  RH  079%=      5-min Rain = 0
KST2 091500Z 31008KT M03/M06 A304 RMK A01 T10291060  RH  079%=      5-min Rain = 0
KST2 091501Z 32008KT M03/M06 A304 RMK A01 T10291060  RH  079%=      5-min Rain = 0
KST2 091502Z 31008KT M03/M06 A304 RMK A01 T10291059  RH  079%=      5-min Rain = 0
KST2 091503Z 31009KT M03/M06 A304 RMK A01 T10281059  RH  079%=      5-min Rain = 0
KST2 091504Z 31008KT M03/M06 A304 RMK A01 T10281059  RH  079%=      5-min Rain = 0
KST2 091505Z 32008KT M03/M06 A304 RMK A01 T10281058  RH  079%=      5-min Rain = 0
KST2 091506Z 31008KT M03/M06 A304 RMK A01 T10281058  RH  080%=      5-min Rain = 0
KST2 091507Z 32008KT M03/M06 A304 RMK A01 T10271059  RH  079%=      5-min Rain = 0
KST2 091508Z 32008KT M03/M06 A304 RMK A01 T10271059  RH  079%=      5-min Rain = 0
KST2 091509Z 31008KT M03/M06 A304 RMK A01 T10271058  RH  079%=      5-min Rain = 0
KST2 091510Z 31008KT M03/M06 A3041 RMK A01 T10261057  RH  079%=      5-min Rain = 0
KST2 091511Z 31009KT M03/M06 A3041 RMK A01 T10261058  RH  079%=      5-min Rain = 0
KST2 091512Z 31008KT M03/M06 A3041 RMK A01 T10261059  RH  078%=      5-min Rain = 0
KST2 091513Z 31009KT M03/M06 A3041 RMK A01 T10261058  RH  078%=      5-min Rain = 0
KST2 091514Z 31008KT M03/M06 A3041 RMK A01 T10251058  RH  078%=      5-min Rain = 0
KST2 091515Z 31007KT M03/M06 A3041 RMK A01 T10251058  RH  078%=      5-min Rain = 0
KST2 091516Z 31009KT M02/M06 A3041 RMK A01 T10241058  RH  078%=      5-min Rain = 0
KST2 091517Z 31008KT M02/M06 A3041 RMK A01 T10241058  RH  077%=      5-min Rain = 0
KST2 091518Z 31009KT M02/M06 A3041 RMK A01 T10241058  RH  077%=      5-min Rain = 0
KST2 091519Z 31009KT M02/M06 A3041 RMK A01 T10231058  RH  077%=      5-min Rain = 0
KST2 091520Z 31009KT M02/M06 A3041 RMK A01 T10231059  RH  076%=      5-min Rain = 0
KST2 091521Z 31008KT M02/M06 A3041 RMK A01 T10231058  RH  077%=      5-min Rain = 0
KST2 091522Z 31008KT M02/M06 A3041 RMK A01 T10221058  RH  077%=      5-min Rain = 0
KST2 091523Z 31009KT M02/M06 A3041 RMK A01 T10221057  RH  077%=      5-min Rain = 0
KST2 091524Z 31008KT M02/M06 A3041 RMK A01 T10221058  RH  076%=      5-min Rain = 0
KST2 091525Z 32008KT M02/M06 A3041 RMK A01 T10221057  RH  077%=      5-min Rain = 0
KST2 091526Z 31008KT M02/M06 A3041 RMK A01 T10221057  RH  077%=      5-min Rain = 0
KST2 091527Z 31008KT M02/M06 A3041 RMK A01 T10221057  RH  077%=      5-min Rain = 0
KST2 091528Z 31007KT M02/M06 A3041 RMK A01 T10211056  RH  077%=      5-min Rain = 0
KST2 091529Z 32007KT M02/M06 A3041 RMK A01 T10211055  RH  077%=      5-min Rain = 0
KST2 091530Z 32009KT M02/M06 A3042 RMK A01 T10211056  RH  077%=      5-min Rain = 0
KST2 091531Z 32008KT M02/M06 A3042 RMK A01 T10201057  RH  076%=      5-min Rain = 0
KST2 091532Z 32008KT M02/M06 A3042 RMK A01 T10201056  RH  076%=      5-min Rain = 0
KST2 091533Z 31009KT M02/M06 A3042 RMK A01 T10191056  RH  076%=      5-min Rain = 0
KST2 091534Z 32010KT M02/M06 A3042 RMK A01 T10191055  RH  076%=      5-min Rain = 0
KST2 091535Z 32010KT M02/M06 A3042 RMK A01 T10181056  RH  075%=      5-min Rain = 0
KST2 091536Z 32009KT M02/M06 A3042 RMK A01 T10181057  RH  075%=      5-min Rain = 0
KST2 091537Z 32009KT M02/M06 A3042 RMK A01 T10171055  RH  075%=      5-min Rain = 0
KST2 091538Z 32010KT M02/M06 A3042 RMK A01 T10171055  RH  075%=      5-min Rain = 0
KST2 091539Z 32010KT M02/M06 A3042 RMK A01 T10171055  RH  075%=      5-min Rain = 0
KST2 091540Z 31008KT M02/M06 A3042 RMK A01 T10171055  RH  075%=      5-min Rain = 0
KST2 091541Z 32009KT M02/M05 A3042 RMK A01 T10171054  RH  075%=      5-min Rain = 0
KST2 091542Z 32009KT M02/M05 A3042 RMK A01 T10161054  RH  075%=      5-min Rain = 0
KST2 091543Z 32007KT M02/M05 A3042 RMK A01 T10161054  RH  075%=      5-min Rain = 0
KST2 091544Z 32007KT M02/M05 A3042 RMK A01 T10161052  RH  076%=      5-min Rain = 0
KST2 091545Z 32007KT M02/M05 A3042 RMK A01 T10151051  RH  076%=      5-min Rain = 0
KST2 091546Z 33007KT M01/M05 A3042 RMK A01 T10141052  RH  075%=      5-min Rain = 0
KST2 091547Z 32009KT M01/M05 A3042 RMK A01 T10131052  RH  075%=      5-min Rain = 0
KST2 091548Z 32007KT M01/M05 A3042 RMK A01 T10121052  RH  074%=      5-min Rain = 0
KST2 091549Z 32005KT M01/M05 A3042 RMK A01 T10111050  RH  075%=      5-min Rain = 0
KST2 091550Z 31007KT M01/M05 A3042 RMK A01 T10101048  RH  076%=      5-min Rain = 0
KST2 091551Z 32007KT M01/M05 A3042 RMK A01 T10101050  RH  074%=      5-min Rain = 0
KST2 091552Z 32010KT M01/M05 A3042 RMK A01 T10091050  RH  074%=      5-min Rain = 0
KST2 091553Z 32009KT M01/M05 A3042 RMK A01 T10091052  RH  073%=      5-min Rain = 0
KST2 091554Z 32008KT M01/M05 A3042 RMK A01 T10091052  RH  073%=      5-min Rain = 0
KST2 091555Z 32008KT M01/M05 A3042 RMK A01 T10091050  RH  073%=      5-min Rain = 0
KST2 091556Z 31007KT M01/M05 A3043 RMK A01 T10091049  RH  074%=      5-min Rain = 0
KST2 091557Z 31008KT M01/M05 A3043 RMK A01 T10081050  RH  073%=      5-min Rain = 0
KST2 091558Z 32009KT M01/M05 A3043 RMK A01 T10081050  RH  073%=      5-min Rain = 0
KST2 091559Z 32008KT M01/M05 A3043 RMK A01 T10081052  RH  072%=      5-min Rain = 0
KST2 091600Z 32007KT M01/M05 A3043 RMK A01 T10081051  RH  072%=      5-min Rain = 0
KST2 091601Z 32007KT M01/M05 A3043 RMK A01 T10081051  RH  073%=      5-min Rain = 0
KST2 091602Z 31006KT M01/M05 A3043 RMK A01 T10071049  RH  073%=      5-min Rain = 0
KST2 091603Z 32006KT M01/M05 A3043 RMK A01 T10071049  RH  073%=      5-min Rain = 0
KST2 091604Z 32007KT M01/M05 A3043 RMK A01 T10061048  RH  073%=      5-min Rain = 0
KST2 091605Z 32007KT M01/M05 A3042 RMK A01 T10051048  RH  073%=      5-min Rain = 0
KST2 091606Z 32007KT M01/M05 A3042 RMK A01 T10051047  RH  073%=      5-min Rain = 0
KST2 091607Z 31008KT M01/M05 A3042 RMK A01 T10051048  RH  073%=      5-min Rain = 0
KST2 091608Z 31007KT M01/M05 A3043 RMK A01 T10051049  RH  072%=      5-min Rain = 0
KST2 091609Z 31006KT M01/M05 A3043 RMK A01 T10051048  RH  072%=      5-min Rain = 0
KST2 091610Z 31007KT M00/M05 A3043 RMK A01 T10041046  RH  073%=      5-min Rain = 0
KST2 091611Z 31006KT M00/M05 A3043 RMK A01 T10031047  RH  073%=      5-min Rain = 0
KST2 091612Z 31007KT M00/M05 A3043 RMK A01 T10031046  RH  073%=      5-min Rain = 0
KST2 091613Z 30008KT M00/M05 A3043 RMK A01 T10031048  RH  072%=      5-min Rain = 0
KST2 091614Z 31008KT M00/M05 A3043 RMK A01 T10031049  RH  071%=      5-min Rain = 0
KST2 091615Z 31009KT M00/M05 A3043 RMK A01 T10031050  RH  071%=      5-min Rain = 0
KST2 091616Z 32009KT M00/M05 A3043 RMK A01 T10041051  RH  071%=      5-min Rain = 0
KST2 091617Z 31007KT M00/M05 A3043 RMK A01 T10031050  RH  071%=      5-min Rain = 0
KST2 091618Z 31009KT M00/M05 A3043 RMK A01 T10031048  RH  072%=      5-min Rain = 0
KST2 091619Z 31008KT M00/M05 A3043 RMK A01 T10031048  RH  072%=      5-min Rain = 0
KST2 091620Z 31007KT M00/M05 A3042 RMK A01 T10031048  RH  071%=      5-min Rain = 0
KST2 091621Z 31008KT M00/M05 A3042 RMK A01 T10021046  RH  072%=      5-min Rain = 0
KST2 091622Z 32007KT M00/M05 A3042 RMK A01 T10011048  RH  071%=      5-min Rain = 0
KST2 091623Z 32007KT M00/M05 A3043 RMK A01 T10011048  RH  071%=      5-min Rain = 0
KST2 091624Z 32006KT M00/M05 A3043 RMK A01 T10011047  RH  071%=      5-min Rain = 0
KST2 091625Z 32007KT M00/M05 A3043 RMK A01 T10011048  RH  071%=      5-min Rain = 0
KST2 091626Z 31008KT M00/M05 A3043 RMK A01 T10011047  RH  071%=      5-min Rain = 0
KST2 091627Z 31007KT M00/M05 A3043 RMK A01 T10011048  RH  070%=      5-min Rain = 0
KST2 091628Z 31006KT M00/M05 A3043 RMK A01 T10011049  RH  070%=      5-min Rain = 0
KST2 091629Z 31007KT M00/M05 A3043 RMK A01 T10011047  RH  071%=      5-min Rain = 0
KST2 091630Z 31006KT 00/05 A3043 RMK A01 T00-00-46  RH  071%=      5-min Rain = 0
KST2 091631Z 31004KT 00/05 A3043 RMK A01 T00-00-46  RH  071%=      5-min Rain = 0
KST2 091632Z 30005KT 00/M04 A3043 RMK A01 T00011043  RH  072%=      5-min Rain = 0
KST2 091633Z 32004KT 00/M04 A3043 RMK A01 T00021042  RH  072%=      5-min Rain = 0
KST2 091634Z 30006KT 00/M04 A3043 RMK A01 T00031041  RH  072%=      5-min Rain = 0
KST2 091635Z 31006KT 00/M04 A3043 RMK A01 T00041043  RH  071%=      5-min Rain = 0
KST2 091636Z 30006KT 00/M04 A3043 RMK A01 T00041044  RH  070%=      5-min Rain = 0
KST2 091637Z 30006KT 00/M05 A3043 RMK A01 T00031047  RH  069%=      5-min Rain = 0
KST2 091638Z 29006KT 00/M05 A3043 RMK A01 T00031046  RH  070%=      5-min Rain = 0
KST2 091639Z 30006KT 00/M05 A3043 RMK A01 T00031046  RH  070%=      5-min Rain = 0
KST2 091640Z 30006KT 00/M05 A3043 RMK A01 T00031046  RH  070%=      5-min Rain = 0
KST2 091641Z 30006KT 00/M05 A3043 RMK A01 T00021046  RH  070%=      5-min Rain = 0
KST2 091642Z 30005KT 00/M05 A3043 RMK A01 T00021046  RH  070%=      5-min Rain = 0
KST2 091643Z 30005KT 00/M04 A3043 RMK A01 T00021044  RH  071%=      5-min Rain = 0
KST2 091644Z 31005KT 00/M04 A3043 RMK A01 T00041042  RH  072%=      5-min Rain = 0
KST2 091645Z 31006KT 00/M04 A3043 RMK A01 T00041044  RH  070%=      5-min Rain = 0
KST2 091646Z 31005KT 00/M05 A3043 RMK A01 T00041045  RH  070%=      5-min Rain = 0
KST2 091647Z 30005KT 00/M04 A3043 RMK A01 T00041043  RH  071%=      5-min Rain = 0
KST2 091648Z 31005KT 00/M04 A3043 RMK A01 T00041042  RH  071%=      5-min Rain = 0
KST2 091649Z 31005KT 01/M04 A3043 RMK A01 T00051041  RH  071%=      5-min Rain = 0
KST2 091650Z 31005KT 01/M04 A3043 RMK A01 T00051040  RH  072%=      5-min Rain = 0
KST2 091651Z 30006KT 01/M04 A3043 RMK A01 T00061041  RH  071%=      5-min Rain = 0
KST2 091652Z 30007KT 01/M04 A3043 RMK A01 T00061043  RH  070%=      5-min Rain = 0
KST2 091653Z 31006KT 01/M04 A3043 RMK A01 T00051044  RH  070%=      5-min Rain = 0
KST2 091654Z 32006KT 01/M04 A3043 RMK A01 T00051042  RH  071%=      5-min Rain = 0
KST2 091655Z 32006KT 01/M04 A3043 RMK A01 T00051043  RH  070%=      5-min Rain = 0
KST2 091656Z 32006KT 01/M04 A3043 RMK A01 T00061039  RH  072%=      5-min Rain = 0
KST2 091657Z 32006KT 01/M04 A3043 RMK A01 T00061042  RH  070%=      5-min Rain = 0
KST2 091658Z 31006KT 01/M04 A3043 RMK A01 T00061041  RH  071%=      5-min Rain = 0
KST2 091659Z 33007KT 01/M04 A3043 RMK A01 T00071039  RH  072%=      5-min Rain = 0
KST2 091700Z 32006KT 01/M04 A3043 RMK A01 T00071040  RH  071%=      5-min Rain = 0
KST2 091701Z 32008KT 01/M04 A3043 RMK A01 T00071040  RH  071%=      5-min Rain = 0
KST2 091702Z 33007KT 01/M04 A3043 RMK A01 T00071040  RH  071%=      5-min Rain = 0
KST2 091703Z 33008KT 01/M04 A3043 RMK A01 T00071041  RH  070%=      5-min Rain = 0
KST2 091704Z 33007KT 01/M04 A3043 RMK A01 T00071041  RH  071%=      5-min Rain = 0
KST2 091705Z 32007KT 01/M04 A3043 RMK A01 T00071039  RH  071%=      5-min Rain = 0
KST2 091706Z 32008KT 01/M04 A3043 RMK A01 T00071039  RH  071%=      5-min Rain = 0
KST2 091707Z 32008KT 01/M04 A3043 RMK A01 T00071040  RH  071%=      5-min Rain = 0
KST2 091708Z 32007KT 01/M04 A3043 RMK A01 T00071040  RH  071%=      5-min Rain = 0
KST2 091709Z 33008KT 01/M04 A3043 RMK A01 T00071041  RH  070%=      5-min Rain = 0
KST2 091710Z 33007KT 01/M04 A3043 RMK A01 T00071040  RH  071%=      5-min Rain = 0
KST2 091711Z 33009KT 01/M04 A3043 RMK A01 T00071038  RH  072%=      5-min Rain = 0
KST2 091712Z 33008KT 01/M04 A3043 RMK A01 T00071040  RH  071%=      5-min Rain = 0
KST2 091713Z 32008KT 01/M04 A3043 RMK A01 T00071040  RH  071%=      5-min Rain = 0
KST2 091714Z 32008KT 01/M04 A3043 RMK A01 T00071040  RH  071%=      5-min Rain = 0
KST2 091715Z 32008KT 01/M04 A3043 RMK A01 T00071039  RH  071%=      5-min Rain = 0
KST2 091716Z 32008KT 01/M04 A3043 RMK A01 T00071037  RH  072%=      5-min Rain = 0
KST2 091717Z 32008KT 01/M04 A3043 RMK A01 T00071039  RH  071%=      5-min Rain = 0
KST2 091718Z 32006KT 01/M04 A3043 RMK A01 T00071038  RH  072%=      5-min Rain = 0
KST2 091719Z 33007KT 01/M04 A3043 RMK A01 T00081036  RH  072%=      5-min Rain = 0
KST2 091720Z 33007KT 01/M04 A3043 RMK A01 T00081035  RH  073%=      5-min Rain = 0
KST2 091721Z 33008KT 01/M03 A3043 RMK A01 T00091033  RH  073%=      5-min Rain = 0
KST2 091722Z 33007KT 01/M03 A3043 RMK A01 T00101034  RH  073%=      5-min Rain = 0
KST2 091723Z 33006KT 01/M03 A3043 RMK A01 T00101033  RH  073%=      5-min Rain = 0
KST2 091724Z 33007KT 01/M03 A3043 RMK A01 T00111031  RH  074%=      5-min Rain = 0
KST2 091725Z 33007KT 01/M03 A3043 RMK A01 T00121030  RH  074%=      5-min Rain = 0
KST2 091726Z 33008KT 01/M03 A3043 RMK A01 T00121030  RH  074%=      5-min Rain = 0
KST2 091727Z 32008KT 01/M03 A3043 RMK A01 T00121030  RH  073%=      5-min Rain = 0
KST2 091728Z 32008KT 01/M03 A3043 RMK A01 T00121034  RH  072%=      5-min Rain = 0
KST2 091729Z 32008KT 01/M03 A3043 RMK A01 T00111034  RH  072%=      5-min Rain = 0
KST2 091730Z 33006KT 01/M03 A3043 RMK A01 T00101032  RH  073%=      5-min Rain = 0
KST2 091731Z 34008KT 01/M03 A3043 RMK A01 T00111030  RH  074%=      5-min Rain = 0
KST2 091732Z 33007KT 01/M03 A3043 RMK A01 T00111033  RH  073%=      5-min Rain = 0
KST2 091733Z 33007KT 01/M03 A3043 RMK A01 T00111031  RH  073%=      5-min Rain = 0
KST2 091734Z 33007KT 01/M03 A3043 RMK A01 T00111032  RH  073%=      5-min Rain = 0
KST2 091735Z 33008KT 01/M03 A3043 RMK A01 T00121030  RH  074%=      5-min Rain = 0
KST2 091736Z 33006KT 01/M03 A3043 RMK A01 T00121030  RH  074%=      5-min Rain = 0
KST2 091737Z 32007KT 01/M03 A3043 RMK A01 T00131030  RH  073%=      5-min Rain = 0
KST2 091738Z 32007KT 01/M03 A3043 RMK A01 T00131029  RH  073%=      5-min Rain = 0
KST2 091739Z 32008KT 01/M03 A3043 RMK A01 T00131030  RH  073%=      5-min Rain = 0
KST2 091740Z 33007KT 01/M03 A3043 RMK A01 T00131030  RH  073%=      5-min Rain = 0
KST2 091741Z 34007KT 01/M03 A3043 RMK A01 T00131026  RH  075%=      5-min Rain = 0
KST2 091742Z 34007KT 01/M03 A3042 RMK A01 T00141029  RH  073%=      5-min Rain = 0
KST2 091743Z 34007KT 01/M03 A3042 RMK A01 T00141028  RH  074%=      5-min Rain = 0
KST2 091744Z 33007KT 02/M02 A3042 RMK A01 T00151023  RH  076%=      5-min Rain = 0
KST2 091745Z 34006KT 02/M02 A3042 RMK A01 T00161022  RH  076%=      5-min Rain = 0
KST2 091746Z 34006KT 02/M02 A3042 RMK A01 T00181019  RH  076%=      5-min Rain = 0
KST2 091747Z 33009KT 02/M02 A3042 RMK A01 T00181023  RH  074%=      5-min Rain = 0
KST2 091748Z 33008KT 02/M03 A3042 RMK A01 T00171029  RH  072%=      5-min Rain = 0
KST2 091749Z 34007KT 02/M03 A3042 RMK A01 T00151028  RH  073%=      5-min Rain = 0
KST2 091750Z 33008KT 02/M03 A3042 RMK A01 T00161027  RH  073%=      5-min Rain = 0
KST2 091751Z 33007KT 02/M03 A3042 RMK A01 T00151028  RH  073%=      5-min Rain = 0
KST2 091752Z 32007KT 02/M03 A3042 RMK A01 T00161026  RH  074%=      5-min Rain = 0
KST2 091753Z 32007KT 02/M02 A3042 RMK A01 T00171022  RH  075%=      5-min Rain = 0
KST2 091754Z 33009KT 02/M02 A3042 RMK A01 T00181023  RH  075%=      5-min Rain = 0
KST2 091755Z 34007KT 02/M03 A3042 RMK A01 T00171025  RH  073%=      5-min Rain = 0
KST2 091756Z 32008KT 02/M02 A3042 RMK A01 T00181023  RH  074%=      5-min Rain = 0
KST2 091757Z 32009KT 02/M03 A3042 RMK A01 T00181025  RH  073%=      5-min Rain = 0
KST2 091758Z 32009KT 02/M03 A3042 RMK A01 T00181025  RH  073%=      5-min Rain = 0
KST2 091759Z 33007KT 02/M03 A3042 RMK A01 T00181027  RH  072%=      5-min Rain = 0
KST2 091800Z 32006KT 02/M03 A3042 RMK A01 T00171027  RH  073%=      5-min Rain = 0
KST2 091801Z 32007KT 02/M02 A3041 RMK A01 T00181021  RH  075%=      5-min Rain = 0
KST2 091802Z 32008KT 02/M02 A3041 RMK A01 T00191023  RH  074%=      5-min Rain = 0
KST2 091803Z 32006KT 02/M02 A3041 RMK A01 T00191021  RH  075%=      5-min Rain = 0
KST2 091804Z 31007KT 02/M02 A3041 RMK A01 T00211019  RH  075%=      5-min Rain = 0
KST2 091805Z 32007KT 02/M02 A3041 RMK A01 T00211021  RH  073%=      5-min Rain = 0
KST2 091806Z 31007KT 02/M02 A3041 RMK A01 T00211022  RH  073%=      5-min Rain = 0
KST2 091807Z 31008KT 02/M02 A3041 RMK A01 T00211022  RH  073%=      5-min Rain = 0
KST2 091808Z 31008KT 02/M02 A3041 RMK A01 T00201023  RH  073%=      5-min Rain = 0
KST2 091809Z 32007KT 02/M02 A3041 RMK A01 T00201023  RH  073%=      5-min Rain = 0
KST2 091810Z 31006KT 02/M02 A3041 RMK A01 T00201022  RH  073%=      5-min Rain = 0
KST2 091811Z 32008KT 02/M02 A3041 RMK A01 T00211019  RH  074%=      5-min Rain = 0
KST2 091812Z 32009KT 02/M02 A3041 RMK A01 T00221023  RH  072%=      5-min Rain = 0
KST2 091813Z 33008KT 02/M02 A3041 RMK A01 T00211024  RH  072%=      5-min Rain = 0
KST2 091814Z 33009KT 02/M02 A3041 RMK A01 T00221022  RH  073%=      5-min Rain = 0
KST2 091815Z 33008KT 02/M02 A3041 RMK A01 T00221021  RH  073%=      5-min Rain = 0
KST2 091816Z 34007KT 02/M02 A3041 RMK A01 T00231019  RH  073%=      5-min Rain = 0
KST2 091817Z 31007KT 02/M02 A3041 RMK A01 T00241022  RH  072%=      5-min Rain = 0
KST2 091818Z 31007KT 02/M02 A3041 RMK A01 T00241017  RH  074%=      5-min Rain = 0
KST2 091819Z 31007KT 03/M02 A3041 RMK A01 T00251017  RH  074%=      5-min Rain = 0
KST2 091820Z 30007KT 03/M02 A304 RMK A01 T00251017  RH  074%=      5-min Rain = 0
KST2 091821Z 31006KT 03/M02 A304 RMK A01 T00251017  RH  074%=      5-min Rain = 0
KST2 091822Z 31007KT 03/M02 A304 RMK A01 T00251017  RH  074%=      5-min Rain = 0
KST2 091823Z 31007KT 03/M02 A304 RMK A01 T00251019  RH  072%=      5-min Rain = 0
KST2 091824Z 32006KT 03/M02 A304 RMK A01 T00251016  RH  074%=      5-min Rain = 0
KST2 091825Z 32006KT 03/M01 A304 RMK A01 T00261013  RH  075%=      5-min Rain = 0
KST2 091826Z 31007KT 03/M01 A304 RMK A01 T00271013  RH  075%=      5-min Rain = 0
KST2 091827Z 31006KT 03/M02 A304 RMK A01 T00271017  RH  073%=      5-min Rain = 0
KST2 091828Z 30007KT 03/M02 A304 RMK A01 T00271016  RH  073%=      5-min Rain = 0
KST2 091829Z 31007KT 03/M02 A304 RMK A01 T00271016  RH  073%=      5-min Rain = 0
KST2 091830Z 31008KT 03/M02 A304 RMK A01 T00261017  RH  073%=      5-min Rain = 0
KST2 091831Z 30008KT 03/M02 A304 RMK A01 T00271016  RH  074%=      5-min Rain = 0
KST2 091832Z 32007KT 03/M02 A304 RMK A01 T00261019  RH  072%=      5-min Rain = 0
KST2 091833Z 31005KT 03/M02 A304 RMK A01 T00261019  RH  072%=      5-min Rain = 0
KST2 091834Z 32006KT 03/M01 A304 RMK A01 T00271014  RH  074%=      5-min Rain = 0
KST2 091835Z 32005KT 03/M01 A304 RMK A01 T00291013  RH  074%=      5-min Rain = 0
KST2 091836Z 31007KT 03/M01 A304 RMK A01 T00291012  RH  074%=      5-min Rain = 0
KST2 091837Z 31007KT 03/M01 A304 RMK A01 T00301013  RH  073%=      5-min Rain = 0
KST2 091838Z 30007KT 03/M01 A304 RMK A01 T00301012  RH  074%=      5-min Rain = 0
KST2 091839Z 31007KT 03/M01 A3039 RMK A01 T00301011  RH  074%=      5-min Rain = 0
KST2 091840Z 32008KT 03/M01 A3039 RMK A01 T00301013  RH  073%=      5-min Rain = 0
KST2 091841Z 33008KT 03/M01 A3039 RMK A01 T00301014  RH  073%=      5-min Rain = 0
KST2 091842Z 33005KT 03/M02 A3039 RMK A01 T00301015  RH  072%=      5-min Rain = 0
KST2 091843Z 31005KT 03/M01 A3039 RMK A01 T00301010  RH  075%=      5-min Rain = 0
KST2 091844Z 31006KT 03/M01 A3039 RMK A01 T00311011  RH  074%=      5-min Rain = 0
KST2 091845Z 31007KT 03/M01 A3039 RMK A01 T00311014  RH  072%=      5-min Rain = 0
KST2 091846Z 31006KT 03/M01 A3039 RMK A01 T00301014  RH  073%=      5-min Rain = 0
KST2 091847Z 32006KT 03/M02 A3039 RMK A01 T00311015  RH  072%=      5-min Rain = 0
KST2 091848Z 32006KT 03/M01 A3039 RMK A01 T00311014  RH  072%=      5-min Rain = 0
KST2 091849Z 31006KT 03/M02 A3039 RMK A01 T00311016  RH  071%=      5-min Rain = 0
KST2 091850Z 31006KT 03/M01 A3039 RMK A01 T00311010  RH  074%=      5-min Rain = 0
KST2 091851Z 31006KT 03/M01 A3039 RMK A01 T00321011  RH  073%=      5-min Rain = 0
KST2 091852Z 31006KT 03/M01 A3039 RMK A01 T00321009  RH  074%=      5-min Rain = 0
KST2 091853Z 30006KT 03/M01 A3039 RMK A01 T00341005  RH  076%=      5-min Rain = 0
KST2 091854Z 31004KT 04/M01 A3039 RMK A01 T00351005  RH  075%=      5-min Rain = 0
KST2 091855Z 30005KT 04/M01 A3038 RMK A01 T00361006  RH  074%=      5-min Rain = 0
KST2 091856Z 31006KT 04/M01 A3038 RMK A01 T00351011  RH  072%=      5-min Rain = 0
KST2 091857Z 31006KT 03/M01 A3038 RMK A01 T00341011  RH  072%=      5-min Rain = 0
KST2 091858Z 30006KT 03/M01 A3038 RMK A01 T00341011  RH  073%=      5-min Rain = 0
KST2 091859Z 31006KT 03/M01 A3038 RMK A01 T00341008  RH  074%=      5-min Rain = 0
KST2 091900Z 32004KT 03/M01 A3038 RMK A01 T00341011  RH  073%=      5-min Rain = 0
KST2 091901Z 32004KT 03/M01 A3038 RMK A01 T00341011  RH  072%=      5-min Rain = 0
KST2 091902Z 31006KT 04/M01 A3038 RMK A01 T00351006  RH  074%=      5-min Rain = 0
KST2 091903Z 30005KT 04/M01 A3038 RMK A01 T00361005  RH  074%=      5-min Rain = 0
KST2 091904Z 31004KT 04/M00 A3038 RMK A01 T00371003  RH  075%=      5-min Rain = 0
KST2 091905Z 31005KT 04/M00 A3038 RMK A01 T00381004  RH  074%=      5-min Rain = 0
KST2 091906Z 33005KT 04/M01 A3038 RMK A01 T00381007  RH  072%=      5-min Rain = 0
KST2 091907Z 31008KT 04/M01 A3038 RMK A01 T00391005  RH  073%=      5-min Rain = 0
KST2 091908Z 31006KT 04/M01 A3038 RMK A01 T00391012  RH  070%=      5-min Rain = 0
KST2 091909Z 31006KT 04/M01 A3038 RMK A01 T00381006  RH  073%=      5-min Rain = 0
KST2 091910Z 33007KT 04/M01 A3038 RMK A01 T00381012  RH  070%=      5-min Rain = 0
KST2 091911Z 34007KT 04/M02 A3038 RMK A01 T00381018  RH  067%=      5-min Rain = 0
KST2 091912Z 34009KT 04/M02 A3038 RMK A01 T00381015  RH  068%=      5-min Rain = 0
KST2 091913Z 31006KT 04/M01 A3038 RMK A01 T00401005  RH  073%=      5-min Rain = 0
KST2 091914Z 31007KT 04/M01 A3038 RMK A01 T00401007  RH  071%=      5-min Rain = 0
KST2 091915Z 30007KT 04/M01 A3038 RMK A01 T00391010  RH  071%=      5-min Rain = 0
KST2 091916Z 30005KT 04/M01 A3038 RMK A01 T00381008  RH  072%=      5-min Rain = 0
KST2 091917Z 31006KT 04/M01 A3038 RMK A01 T00381007  RH  072%=      5-min Rain = 0
KST2 091918Z 31006KT 04/M01 A3038 RMK A01 T00391006  RH  072%=      5-min Rain = 0
KST2 091919Z 31007KT 04/M01 A3038 RMK A01 T00391009  RH  071%=      5-min Rain = 0
KST2 091920Z 31007KT 04/M01 A3038 RMK A01 T00391006  RH  073%=      5-min Rain = 0
KST2 091921Z 34008KT 04/M01 A3038 RMK A01 T00391008  RH  071%=      5-min Rain = 0
KST2 091922Z 32007KT 04/M01 A3038 RMK A01 T00401011  RH  069%=      5-min Rain = 0
KST2 091923Z 32007KT 04/M01 A3038 RMK A01 T00411005  RH  072%=      5-min Rain = 0
KST2 091924Z 30007KT 04/M01 A3038 RMK A01 T00421006  RH  071%=      5-min Rain = 0
KST2 091925Z 31007KT 04/M01 A3038 RMK A01 T00411007  RH  071%=      5-min Rain = 0
KST2 091926Z 30006KT 04/M01 A3038 RMK A01 T00401013  RH  068%=      5-min Rain = 0
KST2 091927Z 30006KT 04/M01 A3038 RMK A01 T00401008  RH  071%=      5-min Rain = 0
KST2 091928Z 31008KT 04/M00 A3038 RMK A01 T00421001  RH  074%=      5-min Rain = 0
KST2 091929Z 30007KT 04/M01 A3038 RMK A01 T00431006  RH  071%=      5-min Rain = 0
KST2 091930Z 30007KT 04/M00 A3038 RMK A01 T00421002  RH  073%=      5-min Rain = 0
KST2 091931Z 32007KT 04/M00 A3038 RMK A01 T00421003  RH  072%=      5-min Rain = 0
KST2 091932Z 32006KT 04/M01 A3038 RMK A01 T00421009  RH  070%=      5-min Rain = 0
KST2 091933Z 31006KT 04/M01 A3038 RMK A01 T00431009  RH  069%=      5-min Rain = 0
KST2 091934Z 30006KT 04/M01 A3038 RMK A01 T00431005  RH  071%=      5-min Rain = 0
KST2 091935Z 30008KT 04/M00 A3038 RMK A01 T00431002  RH  072%=      5-min Rain = 0
KST2 091936Z 30008KT 04/00 A3038 RMK A01 T00440000  RH  074%=      5-min Rain = 0
KST2 091937Z 31008KT 04/M00 A3037 RMK A01 T00441001  RH  073%=      5-min Rain = 0
KST2 091938Z 31008KT 04/M00 A3037 RMK A01 T00441004  RH  071%=      5-min Rain = 0
KST2 091939Z 31008KT 04/M00 A3037 RMK A01 T00431003  RH  072%=      5-min Rain = 0
KST2 091940Z 31006KT 04/M01 A3037 RMK A01 T00431008  RH  069%=      5-min Rain = 0
KST2 091941Z 30006KT 04/M01 A3037 RMK A01 T00421011  RH  068%=      5-min Rain = 0
KST2 091942Z 31008KT 04/M01 A3037 RMK A01 T00421007  RH  071%=      5-min Rain = 0
KST2 091943Z 31007KT 04/M00 A3037 RMK A01 T00431001  RH  073%=      5-min Rain = 0
KST2 091944Z 32008KT 05/00 A3037 RMK A01 T00450001  RH  073%=      5-min Rain = 0
KST2 091945Z 32006KT 05/M01 A3037 RMK A01 T00451007  RH  069%=      5-min Rain = 0
KST2 091946Z 30007KT 04/M01 A3037 RMK A01 T00431005  RH  071%=      5-min Rain = 0
KST2 091947Z 31006KT 04/M01 A3037 RMK A01 T00431007  RH  070%=      5-min Rain = 0
KST2 091948Z 29007KT 04/M01 A3037 RMK A01 T00431005  RH  071%=      5-min Rain = 0
KST2 091949Z 30007KT 04/M01 A3037 RMK A01 T00431006  RH  071%=      5-min Rain = 0
KST2 091950Z 31006KT 04/M01 A3037 RMK A01 T00431005  RH  071%=      5-min Rain = 0
KST2 091951Z 31007KT 04/M00 A3037 RMK A01 T00441003  RH  072%=      5-min Rain = 0
KST2 091952Z 32008KT 05/M00 A3037 RMK A01 T00451001  RH  072%=      5-min Rain = 0
KST2 091953Z 31009KT 05/M00 A3037 RMK A01 T00461002  RH  071%=      5-min Rain = 0
KST2 091954Z 31008KT 05/M01 A3037 RMK A01 T00451007  RH  069%=      5-min Rain = 0
KST2 091955Z 31008KT 04/M01 A3037 RMK A01 T00441008  RH  069%=      5-min Rain = 0
KST2 091956Z 31007KT 04/M01 A3037 RMK A01 T00441007  RH  069%=      5-min Rain = 0
KST2 091957Z 30007KT 04/M01 A3037 RMK A01 T00441007  RH  069%=      5-min Rain = 0
KST2 091958Z 30008KT 05/M00 A3037 RMK A01 T00461002  RH  071%=      5-min Rain = 0
KST2 091959Z 31007KT 05/M01 A3037 RMK A01 T00461005  RH  069%=      5-min Rain = 0
KST2 092000Z 32006KT 05/M01 A3037 RMK A01 T00461006  RH  069%=      5-min Rain = 0
KST2 092001Z 33007KT 05/M01 A3037 RMK A01 T00471008  RH  068%=      5-min Rain = 0
KST2 092002Z 32008KT 05/M01 A3037 RMK A01 T00471009  RH  067%=      5-min Rain = 0
KST2 092003Z 31007KT 05/M00 A3037 RMK A01 T00481003  RH  070%=      5-min Rain = 0
KST2 092004Z 31007KT 05/00 A3037 RMK A01 T00500004  RH  072%=      5-min Rain = 0
KST2 092005Z 31007KT 05/M00 A3037 RMK A01 T00501003  RH  069%=      5-min Rain = 0
KST2 092006Z 31007KT 05/M01 A3037 RMK A01 T00481008  RH  067%=      5-min Rain = 0
KST2 092007Z 31008KT 05/M01 A3037 RMK A01 T00471008  RH  067%=      5-min Rain = 0
KST2 092008Z 30007KT 05/M00 A3037 RMK A01 T00471003  RH  070%=      5-min Rain = 0
KST2 092009Z 30007KT 05/00 A3037 RMK A01 T00480002  RH  072%=      5-min Rain = 0
KST2 092010Z 31008KT 05/M01 A3037 RMK A01 T00491006  RH  067%=      5-min Rain = 0
KST2 092011Z 32009KT 05/M01 A3037 RMK A01 T00481007  RH  068%=      5-min Rain = 0
KST2 092012Z 32009KT 05/M01 A3037 RMK A01 T00471010  RH  066%=      5-min Rain = 0
KST2 092013Z 32008KT 05/M01 A3037 RMK A01 T00471013  RH  065%=      5-min Rain = 0
KST2 092014Z 31007KT 05/M01 A3037 RMK A01 T00471011  RH  066%=      5-min Rain = 0
KST2 092015Z 31008KT 05/M00 A3037 RMK A01 T00491002  RH  070%=      5-min Rain = 0
KST2 092016Z 31007KT 05/M01 A3037 RMK A01 T00491009  RH  066%=      5-min Rain = 0
KST2 092017Z 30006KT 05/M01 A3037 RMK A01 T00481008  RH  067%=      5-min Rain = 0
KST2 092018Z 30007KT 05/M00 A3037 RMK A01 T00481002  RH  070%=      5-min Rain = 0
KST2 092019Z 30008KT 05/M01 A3037 RMK A01 T00481005  RH  068%=      5-min Rain = 0
KST2 092020Z 30007KT 05/M01 A3037 RMK A01 T00481010  RH  066%=      5-min Rain = 0
KST2 092021Z 32007KT 05/M01 A3037 RMK A01 T00481011  RH  065%=      5-min Rain = 0
KST2 092022Z 31007KT 05/M01 A3037 RMK A01 T00481009  RH  067%=      5-min Rain = 0
KST2 092023Z 31007KT 05/M00 A3037 RMK A01 T00491001  RH  070%=      5-min Rain = 0
KST2 092024Z 30007KT 05/M00 A3037 RMK A01 T00501001  RH  070%=      5-min Rain = 0
KST2 092025Z 29005KT 05/M01 A3037 RMK A01 T00501005  RH  068%=      5-min Rain = 0
KST2 092026Z 30007KT 05/M01 A3037 RMK A01 T00491005  RH  068%=      5-min Rain = 0
KST2 092027Z 30010KT 05/M00 A3037 RMK A01 T00501002  RH  069%=      5-min Rain = 0
KST2 092028Z 32008KT 05/M00 A3037 RMK A01 T00501001  RH  069%=      5-min Rain = 0
KST2 092029Z 32006KT 05/M01 A3037 RMK A01 T00501006  RH  067%=      5-min Rain = 0
KST2 092030Z 33004KT 05/M01 A3037 RMK A01 T00501009  RH  066%=      5-min Rain = 0
KST2 092031Z 31006KT 05/M00 A3037 RMK A01 T00501001  RH  070%=      5-min Rain = 0
KST2 092032Z 29007KT 05/01 A3037 RMK A01 T00530009  RH  073%=      5-min Rain = 0
KST2 092033Z 31008KT 05/M00 A3037 RMK A01 T00531003  RH  067%=      5-min Rain = 0
KST2 092034Z 30008KT 05/M01 A3037 RMK A01 T00511008  RH  066%=      5-min Rain = 0
KST2 092035Z 30008KT 05/M00 A3037 RMK A01 T00511004  RH  068%=      5-min Rain = 0
KST2 092036Z 31006KT 05/M00 A3037 RMK A01 T00521004  RH  067%=      5-min Rain = 0
KST2 092037Z 30008KT 05/M01 A3037 RMK A01 T00521006  RH  066%=      5-min Rain = 0
KST2 092038Z 29007KT 05/M01 A3037 RMK A01 T00521008  RH  065%=      5-min Rain = 0
KST2 092039Z 31008KT 05/M01 A3037 RMK A01 T00511010  RH  065%=      5-min Rain = 0
KST2 092040Z 33006KT 05/M00 A3037 RMK A01 T00511003  RH  068%=      5-min Rain = 0
KST2 092041Z 33006KT 05/M01 A3037 RMK A01 T00521005  RH  067%=      5-min Rain = 0
KST2 092042Z 31007KT 05/M00 A3037 RMK A01 T00521002  RH  068%=      5-min Rain = 0
KST2 092043Z 29007KT 05/M01 A3037 RMK A01 T00521005  RH  066%=      5-min Rain = 0
KST2 092044Z 29008KT 05/M00 A3037 RMK A01 T00521003  RH  068%=      5-min Rain = 0
KST2 092045Z 30007KT 05/M00 A3037 RMK A01 T00521001  RH  068%=      5-min Rain = 0
KST2 092046Z 30007KT 05/M01 A3037 RMK A01 T00531005  RH  066%=      5-min Rain = 0
KST2 092047Z 30006KT 05/M00 A3037 RMK A01 T00531004  RH  067%=      5-min Rain = 0
KST2 092048Z 29006KT 05/M00 A3037 RMK A01 T00531001  RH  068%=      5-min Rain = 0
KST2 092049Z 31006KT 05/M00 A3037 RMK A01 T00541003  RH  067%=      5-min Rain = 0
KST2 092050Z 32009KT 05/M01 A3037 RMK A01 T00541006  RH  065%=      5-min Rain = 0
KST2 092051Z 31007KT 05/M01 A3037 RMK A01 T00541007  RH  065%=      5-min Rain = 0
KST2 092052Z 31006KT 05/M01 A3037 RMK A01 T00531010  RH  064%=      5-min Rain = 0
KST2 092053Z 30007KT 05/M01 A3037 RMK A01 T00531007  RH  065%=      5-min Rain = 0
KST2 092054Z 31007KT 05/M01 A3037 RMK A01 T00531008  RH  065%=      5-min Rain = 0
KST2 092055Z 30006KT 05/M01 A3037 RMK A01 T00531005  RH  066%=      5-min Rain = 0
KST2 092056Z 28008KT 05/M01 A3036 RMK A01 T00541007  RH  065%=      5-min Rain = 0
KST2 092057Z 30009KT 05/M01 A3036 RMK A01 T00541008  RH  064%=      5-min Rain = 0
KST2 092058Z 31008KT 05/M00 A3036 RMK A01 T00541004  RH  066%=      5-min Rain = 0
KST2 092059Z 31006KT 05/M01 A3036 RMK A01 T00541009  RH  063%=      5-min Rain = 0
KST2 092100Z 33006KT 05/M01 A3036 RMK A01 T00541010  RH  063%=      5-min Rain = 0
KST2 092101Z 30007KT 05/M01 A3036 RMK A01 T00541007  RH  065%=      5-min Rain = 0
KST2 092102Z 30009KT 06/M01 A3036 RMK A01 T00551011  RH  063%=      5-min Rain = 0
KST2 092103Z 31009KT 05/M01 A3036 RMK A01 T00541011  RH  063%=      5-min Rain = 0
KST2 092104Z 32009KT 06/M01 A3036 RMK A01 T00551010  RH  063%=      5-min Rain = 0
KST2 092105Z 32009KT 05/M02 A3036 RMK A01 T00541017  RH  060%=      5-min Rain = 0
KST2 092106Z 32009KT 05/M02 A3036 RMK A01 T00531018  RH  060%=      5-min Rain = 0
KST2 092107Z 32008KT 05/M02 A3036 RMK A01 T00521016  RH  061%=      5-min Rain = 0
KST2 092108Z 32009KT 05/M01 A3036 RMK A01 T00531012  RH  063%=      5-min Rain = 0
KST2 092109Z 32009KT 05/M01 A3036 RMK A01 T00541008  RH  064%=      5-min Rain = 0
KST2 092110Z 32009KT 05/M01 A3036 RMK A01 T00541010  RH  063%=      5-min Rain = 0
KST2 092111Z 31009KT 05/M01 A3036 RMK A01 T00541010  RH  064%=      5-min Rain = 0
KST2 092112Z 32007KT 05/M01 A3036 RMK A01 T00541014  RH  062%=      5-min Rain = 0
KST2 092113Z 31008KT 05/M01 A3036 RMK A01 T00541012  RH  062%=      5-min Rain = 0
KST2 092114Z 31009KT 05/M01 A3036 RMK A01 T00541010  RH  063%=      5-min Rain = 0
KST2 092115Z 31008KT 06/M01 A3036 RMK A01 T00551012  RH  062%=      5-min Rain = 0
KST2 092116Z 31008KT 06/M01 A3036 RMK A01 T00551014  RH  061%=      5-min Rain = 0
KST2 092117Z 31009KT 05/M02 A3036 RMK A01 T00541018  RH  060%=      5-min Rain = 0
KST2 092118Z 30010KT 05/M02 A3036 RMK A01 T00541017  RH  060%=      5-min Rain = 0
KST2 092119Z 30009KT 06/M02 A3036 RMK A01 T00551015  RH  061%=      5-min Rain = 0
KST2 092120Z 30010KT 06/M01 A3036 RMK A01 T00561014  RH  061%=      5-min Rain = 0
KST2 092121Z 30008KT 06/M02 A3036 RMK A01 T00561018  RH  059%=      5-min Rain = 0
KST2 092122Z 31009KT 06/M02 A3036 RMK A01 T00551015  RH  061%=      5-min Rain = 0
KST2 092123Z 32009KT 06/M02 A3036 RMK A01 T00551015  RH  061%=      5-min Rain = 0
KST2 092124Z 32009KT 06/M02 A3036 RMK A01 T00551015  RH  061%=      5-min Rain = 0
KST2 092125Z 33008KT 06/M01 A3036 RMK A01 T00551014  RH  061%=      5-min Rain = 0
KST2 092126Z 33007KT 06/M02 A3036 RMK A01 T00551019  RH  059%=      5-min Rain = 0
KST2 092127Z 31008KT 06/M01 A3036 RMK A01 T00551014  RH  061%=      5-min Rain = 0
KST2 092128Z 30008KT 06/M01 A3036 RMK A01 T00561014  RH  061%=      5-min Rain = 0
KST2 092129Z 31008KT 06/M02 A3036 RMK A01 T00551015  RH  061%=      5-min Rain = 0
KST2 092130Z 30007KT 06/M01 A3036 RMK A01 T00551007  RH  064%=      5-min Rain = 0
KST2 092131Z 31008KT 06/M01 A3036 RMK A01 T00561008  RH  063%=      5-min Rain = 0
KST2 092132Z 31008KT 06/M01 A3036 RMK A01 T00561013  RH  061%=      5-min Rain = 0
KST2 092133Z 31008KT 06/M01 A3036 RMK A01 T00561010  RH  063%=      5-min Rain = 0
KST2 092134Z 32008KT 06/M01 A3036 RMK A01 T00561012  RH  061%=      5-min Rain = 0
KST2 092135Z 31010KT 06/M02 A3036 RMK A01 T00561018  RH  059%=      5-min Rain = 0
KST2 092136Z 31011KT 06/M03 A3036 RMK A01 T00561027  RH  055%=      5-min Rain = 0
KST2 092137Z 31011KT 06/M03 A3036 RMK A01 T00551028  RH  055%=      5-min Rain = 0
KST2 092138Z 31010KT 06/M02 A3036 RMK A01 T00551023  RH  057%=      5-min Rain = 0
KST2 092139Z 32010KT 06/M02 A3036 RMK A01 T00551017  RH  060%=      5-min Rain = 0
KST2 092140Z 30010KT 06/M02 A3036 RMK A01 T00561018  RH  059%=      5-min Rain = 0
KST2 092141Z 31009KT 06/M02 A3036 RMK A01 T00551020  RH  058%=      5-min Rain = 0
KST2 092142Z 31008KT 06/M02 A3036 RMK A01 T00551016  RH  060%=      5-min Rain = 0
KST2 092143Z 30009KT 06/M01 A3036 RMK A01 T00561013  RH  061%=      5-min Rain = 0
KST2 092144Z 31010KT 06/M02 A3036 RMK A01 T00571017  RH  059%=      5-min Rain = 0
KST2 092145Z 32010KT 06/M02 A3036 RMK A01 T00571017  RH  059%=      5-min Rain = 0
KST2 092146Z 32008KT 06/M02 A3036 RMK A01 T00551024  RH  056%=      5-min Rain = 0
KST2 092147Z 31010KT 06/M02 A3036 RMK A01 T00551023  RH  057%=      5-min Rain = 0
KST2 092148Z 30010KT 06/M02 A3036 RMK A01 T00551021  RH  058%=      5-min Rain = 0
KST2 092149Z 31009KT 06/M02 A3036 RMK A01 T00551020  RH  058%=      5-min Rain = 0
KST2 092150Z 32010KT 06/M02 A3036 RMK A01 T00551019  RH  059%=      5-min Rain = 0
KST2 092151Z 32009KT 06/M02 A3036 RMK A01 T00561023  RH  057%=      5-min Rain = 0
KST2 092152Z 32010KT 06/M03 A3036 RMK A01 T00551026  RH  056%=      5-min Rain = 0
KST2 092153Z 33009KT 06/M03 A3036 RMK A01 T00551027  RH  056%=      5-min Rain = 0
KST2 092154Z 32008KT 06/M02 A3036 RMK A01 T00551023  RH  057%=      5-min Rain = 0
KST2 092155Z 31009KT 06/M02 A3036 RMK A01 T00551022  RH  058%=      5-min Rain = 0
KST2 092156Z 31010KT 06/M03 A3036 RMK A01 T00551026  RH  056%=      5-min Rain = 0
KST2 092157Z 31011KT 06/M03 A3036 RMK A01 T00551026  RH  056%=      5-min Rain = 0
KST2 092158Z 32010KT 06/M02 A3036 RMK A01 T00551021  RH  058%=      5-min Rain = 0
KST2 092159Z 31010KT 06/M02 A3036 RMK A01 T00551019  RH  059%=      5-min Rain = 0
KST2 092200Z 32012KT 06/M02 A3036 RMK A01 T00551023  RH  057%=      5-min Rain = 0
KST2 092201Z 31012KT 06/M03 A3036 RMK A01 T00551026  RH  056%=      5-min Rain = 0
KST2 092202Z 31012KT 06/M02 A3036 RMK A01 T00551024  RH  057%=      5-min Rain = 0
KST2 092203Z 31011KT 05/M03 A3036 RMK A01 T00541026  RH  056%=      5-min Rain = 0
KST2 092204Z 31011KT 05/M02 A3037 RMK A01 T00541022  RH  058%=      5-min Rain = 0
KST2 092205Z 31008KT 05/M03 A3037 RMK A01 T00541028  RH  056%=      5-min Rain = 0
KST2 092206Z 31010KT 05/M02 A3037 RMK A01 T00541022  RH  058%=      5-min Rain = 0
KST2 092207Z 32011KT 05/M02 A3037 RMK A01 T00541023  RH  058%=      5-min Rain = 0
KST2 092208Z 32010KT 06/M03 A3037 RMK A01 T00551026  RH  056%=      5-min Rain = 0
KST2 092209Z 31008KT 05/M02 A3036 RMK A01 T00541021  RH  058%=      5-min Rain = 0
KST2 092210Z 32008KT 06/M02 A3036 RMK A01 T00561018  RH  059%=      5-min Rain = 0
KST2 092211Z 31008KT 06/M02 A3036 RMK A01 T00561019  RH  058%=      5-min Rain = 0
KST2 092212Z 31009KT 06/M02 A3036 RMK A01 T00561015  RH  060%=      5-min Rain = 0
KST2 092213Z 30011KT 06/M02 A3036 RMK A01 T00561024  RH  056%=      5-min Rain = 0
KST2 092214Z 31011KT 06/M03 A3036 RMK A01 T00561026  RH  056%=      5-min Rain = 0
KST2 092215Z 31010KT 06/M03 A3036 RMK A01 T00551031  RH  054%=      5-min Rain = 0
KST2 092216Z 31008KT 06/M02 A3037 RMK A01 T00551023  RH  057%=      5-min Rain = 0
KST2 092217Z 31009KT 06/M02 A3037 RMK A01 T00551022  RH  058%=      5-min Rain = 0
KST2 092218Z 32009KT 06/M02 A3037 RMK A01 T00551022  RH  057%=      5-min Rain = 0
KST2 092219Z 31010KT 06/M03 A3037 RMK A01 T00551026  RH  056%=      5-min Rain = 0
KST2 092220Z 31010KT 06/M03 A3037 RMK A01 T00551030  RH  054%=      5-min Rain = 0
KST2 092221Z 32009KT 05/M03 A3037 RMK A01 T00541028  RH  055%=      5-min Rain = 0
KST2 092222Z 32007KT 06/M02 A3037 RMK A01 T00551021  RH  058%=      5-min Rain = 0
KST2 092223Z 32008KT 06/M01 A3037 RMK A01 T00551014  RH  061%=      5-min Rain = 0
KST2 092224Z 31010KT 06/M02 A3037 RMK A01 T00561023  RH  057%=      5-min Rain = 0
KST2 092225Z 31010KT 06/M03 A3037 RMK A01 T00551030  RH  054%=      5-min Rain = 0
KST2 092226Z 31009KT 06/M03 A3037 RMK A01 T00551031  RH  054%=      5-min Rain = 0
KST2 092227Z 31011KT 06/M03 A3037 RMK A01 T00551031  RH  054%=      5-min Rain = 0
KST2 092228Z 32009KT 05/M03 A3037 RMK A01 T00541032  RH  054%=      5-min Rain = 0
KST2 092229Z 31009KT 05/M03 A3037 RMK A01 T00541032  RH  054%=      5-min Rain = 0
KST2 092230Z 32008KT 05/M03 A3037 RMK A01 T00541029  RH  055%=      5-min Rain = 0
KST2 092231Z 32007KT 05/M03 A3037 RMK A01 T00541026  RH  056%=      5-min Rain = 0
KST2 092232Z 32007KT 05/M02 A3037 RMK A01 T00541024  RH  057%=      5-min Rain = 0
KST2 092233Z 32008KT 06/M02 A3037 RMK A01 T00551024  RH  057%=      5-min Rain = 0
KST2 092234Z 32008KT 05/M03 A3037 RMK A01 T00541026  RH  056%=      5-min Rain = 0
KST2 092235Z 33010KT 05/M03 A3037 RMK A01 T00541029  RH  055%=      5-min Rain = 0
KST2 092236Z 33009KT 05/M03 A3037 RMK A01 T00541034  RH  053%=      5-min Rain = 0
KST2 092237Z 32010KT 05/M03 A3037 RMK A01 T00531033  RH  054%=      5-min Rain = 0
KST2 092238Z 32010KT 05/M04 A3037 RMK A01 T00531035  RH  053%=      5-min Rain = 0
KST2 092239Z 32009KT 05/M03 A3037 RMK A01 T00531033  RH  054%=      5-min Rain = 0
KST2 092240Z 33009KT 05/M03 A3037 RMK A01 T00531033  RH  054%=      5-min Rain = 0
KST2 092241Z 32009KT 05/M04 A3037 RMK A01 T00521035  RH  053%=      5-min Rain = 0
KST2 092242Z 33009KT 05/M03 A3037 RMK A01 T00521034  RH  054%=      5-min Rain = 0
KST2 092243Z 32010KT 05/M04 A3037 RMK A01 T00521036  RH  053%=      5-min Rain = 0
KST2 092244Z 32011KT 05/M04 A3037 RMK A01 T00511035  RH  053%=      5-min Rain = 0
KST2 092245Z 32010KT 05/M04 A3037 RMK A01 T00511036  RH  053%=      5-min Rain = 0
KST2 092246Z 32010KT 05/M04 A3037 RMK A01 T00511035  RH  054%=      5-min Rain = 0
KST2 092247Z 32010KT 05/M04 A3037 RMK A01 T00511035  RH  054%=      5-min Rain = 0
KST2 092248Z 32009KT 05/M04 A3037 RMK A01 T00511035  RH  054%=      5-min Rain = 0
KST2 092249Z 31009KT 05/M03 A3037 RMK A01 T00501030  RH  056%=      5-min Rain = 0
KST2 092250Z 32011KT 05/M03 A3037 RMK A01 T00501033  RH  055%=      5-min Rain = 0
KST2 092251Z 32010KT 05/M04 A3037 RMK A01 T00501036  RH  054%=      5-min Rain = 0
KST2 092252Z 31009KT 05/M04 A3037 RMK A01 T00501035  RH  054%=      5-min Rain = 0
KST2 092253Z 31009KT 05/M03 A3037 RMK A01 T00501032  RH  055%=      5-min Rain = 0
KST2 092254Z 31010KT 05/M04 A3037 RMK A01 T00501035  RH  054%=      5-min Rain = 0
KST2 092255Z 32010KT 05/M03 A3038 RMK A01 T00501034  RH  054%=      5-min Rain = 0
KST2 092256Z 32009KT 05/M04 A3038 RMK A01 T00491036  RH  054%=      5-min Rain = 0
KST2 092257Z 32009KT 05/M04 A3037 RMK A01 T00491038  RH  053%=      5-min Rain = 0
KST2 092258Z 32009KT 05/M04 A3037 RMK A01 T00491035  RH  055%=      5-min Rain = 0
KST2 092259Z 32008KT 05/M03 A3037 RMK A01 T00491032  RH  056%=      5-min Rain = 0
KST2 092300Z 32007KT 05/M03 A3037 RMK A01 T00491028  RH  058%=      5-min Rain = 0
KST2 092301Z 32009KT 05/M03 A3037 RMK A01 T00491031  RH  056%=      5-min Rain = 0
KST2 092302Z 31009KT 05/M04 A3037 RMK A01 T00481035  RH  055%=      5-min Rain = 0
KST2 092303Z 32009KT 05/M04 A3037 RMK A01 T00491036  RH  054%=      5-min Rain = 0
KST2 092304Z 32008KT 05/M04 A3037 RMK A01 T00481035  RH  055%=      5-min Rain = 0
KST2 092305Z 31009KT 05/M03 A3037 RMK A01 T00481033  RH  056%=      5-min Rain = 0
KST2 092306Z 32008KT 05/M04 A3037 RMK A01 T00481036  RH  055%=      5-min Rain = 0
KST2 092307Z 32008KT 05/M04 A3037 RMK A01 T00471036  RH  055%=      5-min Rain = 0
KST2 092308Z 32009KT 05/M04 A3037 RMK A01 T00471035  RH  055%=      5-min Rain = 0
KST2 092309Z 32009KT 05/M04 A3037 RMK A01 T00471039  RH  054%=      5-min Rain = 0
KST2 092310Z 32008KT 05/M04 A3037 RMK A01 T00471038  RH  054%=      5-min Rain = 0
KST2 092311Z 32009KT 05/M04 A3037 RMK A01 T00461038  RH  054%=      5-min Rain = 0
KST2 092312Z 32008KT 05/M04 A3037 RMK A01 T00461036  RH  055%=      5-min Rain = 0
KST2 092313Z 32008KT 05/M03 A3037 RMK A01 T00451033  RH  057%=      5-min Rain = 0
KST2 092314Z 32008KT 05/M04 A3037 RMK A01 T00451035  RH  056%=      5-min Rain = 0
KST2 092315Z 32008KT 04/M03 A3037 RMK A01 T00441033  RH  057%=      5-min Rain = 0
KST2 092316Z 32009KT 04/M03 A3037 RMK A01 T00441033  RH  057%=      5-min Rain = 0
KST2 092317Z 32008KT 04/M03 A3037 RMK A01 T00441034  RH  057%=      5-min Rain = 0
KST2 092318Z 32008KT 04/M03 A3037 RMK A01 T00431033  RH  057%=      5-min Rain = 0
KST2 092319Z 32008KT 04/M03 A3037 RMK A01 T00431033  RH  058%=      5-min Rain = 0
KST2 092320Z 32008KT 04/M03 A3037 RMK A01 T00431033  RH  058%=      5-min Rain = 0
KST2 092321Z 32007KT 04/M03 A3037 RMK A01 T00421031  RH  059%=      5-min Rain = 0
KST2 092322Z 32008KT 04/M03 A3037 RMK A01 T00421031  RH  059%=      5-min Rain = 0
KST2 092323Z 33008KT 04/M03 A3037 RMK A01 T00421033  RH  058%=      5-min Rain = 0
KST2 092324Z 32007KT 04/M03 A3037 RMK A01 T00411033  RH  059%=      5-min Rain = 0
KST2 092325Z 33008KT 04/M03 A3037 RMK A01 T00411032  RH  059%=      5-min Rain = 0
KST2 092326Z 32008KT 04/M03 A3037 RMK A01 T00401032  RH  059%=      5-min Rain = 0
KST2 092327Z 33008KT 04/M03 A3037 RMK A01 T00401032  RH  060%=      5-min Rain = 0
KST2 092328Z 33008KT 04/M03 A3037 RMK A01 T00391031  RH  060%=      5-min Rain = 0
KST2 092329Z 33009KT 04/M03 A3037 RMK A01 T00391031  RH  060%=      5-min Rain = 0
KST2 092330Z 33008KT 04/M03 A3037 RMK A01 T00381030  RH  061%=      5-min Rain = 0
KST2 092331Z 32008KT 04/M03 A3037 RMK A01 T00381030  RH  061%=      5-min Rain = 0
KST2 092332Z 32009KT 04/M03 A3037 RMK A01 T00371031  RH  061%=      5-min Rain = 0
KST2 092333Z 33009KT 04/M03 A3037 RMK A01 T00371032  RH  061%=      5-min Rain = 0
KST2 092334Z 33008KT 04/M03 A3037 RMK A01 T00371032  RH  061%=      5-min Rain = 0
KST2 092335Z 32009KT 04/M03 A3037 RMK A01 T00361030  RH  062%=      5-min Rain = 0
KST2 092336Z 33009KT 04/M03 A3037 RMK A01 T00361030  RH  062%=      5-min Rain = 0
KST2 092337Z 33008KT 04/M03 A3037 RMK A01 T00351030  RH  062%=      5-min Rain = 0
KST2 092338Z 33008KT 04/M03 A3037 RMK A01 T00351029  RH  063%=      5-min Rain = 0
KST2 092339Z 33008KT 03/M03 A3037 RMK A01 T00341029  RH  063%=      5-min Rain = 0
KST2 092340Z 33008KT 03/M03 A3037 RMK A01 T00341030  RH  063%=      5-min Rain = 0
KST2 092341Z 33008KT 03/M03 A3037 RMK A01 T00341030  RH  063%=      5-min Rain = 0
KST2 092342Z 33009KT 03/M03 A3037 RMK A01 T00341032  RH  062%=      5-min Rain = 0
KST2 092343Z 33009KT 03/M03 A3037 RMK A01 T00341033  RH  062%=      5-min Rain = 0
KST2 092344Z 33008KT 03/M03 A3037 RMK A01 T00341033  RH  062%=      5-min Rain = 0
KST2 092345Z 33008KT 03/M03 A3037 RMK A01 T00341033  RH  061%=      5-min Rain = 0
KST2 092346Z 33008KT 03/M03 A3037 RMK A01 T00341033  RH  062%=      5-min Rain = 0
KST2 092347Z 33008KT 03/M03 A3037 RMK A01 T00341031  RH  063%=      5-min Rain = 0
KST2 092348Z 33007KT 03/M03 A3037 RMK A01 T00331032  RH  062%=      5-min Rain = 0
KST2 092349Z 33007KT 03/M03 A3037 RMK A01 T00331031  RH  063%=      5-min Rain = 0
KST2 092350Z 33007KT 03/M03 A3037 RMK A01 T00321030  RH  064%=      5-min Rain = 0
KST2 092351Z 33006KT 03/M03 A3037 RMK A01 T00321030  RH  064%=      5-min Rain = 0
KST2 092352Z 32007KT 03/M03 A3037 RMK A01 T00321029  RH  065%=      5-min Rain = 0
KST2 092353Z 33006KT 03/M03 A3037 RMK A01 T00311028  RH  065%=      5-min Rain = 0
KST2 092354Z 32006KT 03/M03 A3037 RMK A01 T00301027  RH  066%=      5-min Rain = 0
KST2 092355Z 32006KT 03/M03 A3037 RMK A01 T00291027  RH  066%=      5-min Rain = 0
KST2 092356Z 33006KT 03/M03 A3037 RMK A01 T00291027  RH  067%=      5-min Rain = 0
KST2 092357Z 32006KT 03/M03 A3037 RMK A01 T00281026  RH  068%=      5-min Rain = 0
KST2 092358Z 33006KT 03/M03 A3037 RMK A01 T00281026  RH  068%=      5-min Rain = 0
KST2 092359Z 32006KT 03/M03 A3037 RMK A01 T00271026  RH  068%=      5-min Rain = 0
KST2 100000Z 33006KT 03/M03 A3037 RMK A01 T00261026  RH  068%=      5-min Rain = 0
KST2 100001Z 33006KT 03/M02 A3037 RMK A01 T00261024  RH  069%=      5-min Rain = 0
KST2 100002Z 33006KT 03/M02 A3037 RMK A01 T00251024  RH  070%=      5-min Rain = 0
KST2 100003Z 33006KT 03/M02 A3037 RMK A01 T00251024  RH  070%=      5-min Rain = 0
KST2 100004Z 33005KT 02/M02 A3037 RMK A01 T00241023  RH  071%=      5-min Rain = 0
KST2 100005Z 33005KT 02/M02 A3037 RMK A01 T00241024  RH  071%=      5-min Rain = 0
KST2 100006Z 33005KT 02/M02 A3037 RMK A01 T00231024  RH  071%=      5-min Rain = 0
KST2 100007Z 33005KT 02/M02 A3037 RMK A01 T00231023  RH  071%=      5-min Rain = 0
KST2 100008Z 33005KT 02/M02 A3037 RMK A01 T00231024  RH  071%=      5-min Rain = 0
KST2 100009Z 33005KT 02/M02 A3037 RMK A01 T00231024  RH  071%=      5-min Rain = 0
KST2 100010Z 32005KT 02/M02 A3037 RMK A01 T00231024  RH  071%=      5-min Rain = 0
KST2 100011Z 32005KT 02/M03 A3037 RMK A01 T00231025  RH  071%=      5-min Rain = 0
KST2 100012Z 32005KT 02/M03 A3037 RMK A01 T00221025  RH  071%=      5-min Rain = 0
KST2 100013Z 32005KT 02/M03 A3037 RMK A01 T00221025  RH  071%=      5-min Rain = 0
KST2 100014Z 32005KT 02/M03 A3037 RMK A01 T00221025  RH  071%=      5-min Rain = 0
KST2 100015Z 32005KT 02/M03 A3037 RMK A01 T00221025  RH  071%=      5-min Rain = 0
KST2 100016Z 32006KT 02/M02 A3037 RMK A01 T00221024  RH  072%=      5-min Rain = 0
KST2 100017Z 32006KT 02/M02 A3037 RMK A01 T00211024  RH  072%=      5-min Rain = 0
KST2 100018Z 32006KT 02/M02 A3037 RMK A01 T00211024  RH  072%=      5-min Rain = 0
KST2 100019Z 32006KT 02/M02 A3038 RMK A01 T00201024  RH  073%=      5-min Rain = 0
KST2 100020Z 32006KT 02/M02 A3038 RMK A01 T00201023  RH  073%=      5-min Rain = 0
KST2 100021Z 32005KT 02/M02 A3037 RMK A01 T00201024  RH  073%=      5-min Rain = 0
KST2 100022Z 32005KT 02/M02 A3037 RMK A01 T00201024  RH  073%=      5-min Rain = 0
KST2 100023Z 31005KT 02/M02 A3037 RMK A01 T00201024  RH  073%=      5-min Rain = 0
KST2 100024Z 31005KT 02/M02 A3037 RMK A01 T00191023  RH  073%=      5-min Rain = 0
KST2 100025Z 31005KT 02/M02 A3037 RMK A01 T00191023  RH  074%=      5-min Rain = 0
KST2 100026Z 30005KT 02/M02 A3038 RMK A01 T00181022  RH  075%=      5-min Rain = 0
KST2 100027Z 30004KT 02/M02 A3038 RMK A01 T00181021  RH  075%=      5-min Rain = 0
KST2 100028Z 30004KT 02/M02 A3038 RMK A01 T00171020  RH  076%=      5-min Rain = 0
KST2 100029Z 29004KT 02/M02 A3038 RMK A01 T00171020  RH  076%=      5-min Rain = 0
KST2 100030Z 29004KT 02/M02 A3038 RMK A01 T00171020  RH  077%=      5-min Rain = 0
KST2 100031Z 30005KT 02/M02 A3038 RMK A01 T00161019  RH  078%=      5-min Rain = 0
KST2 100032Z 30005KT 02/M02 A3038 RMK A01 T00151019  RH  078%=      5-min Rain = 0
KST2 100033Z 30005KT 02/M02 A3038 RMK A01 T00151019  RH  078%=      5-min Rain = 0
KST2 100034Z 30005KT 01/M02 A3038 RMK A01 T00141020  RH  078%=      5-min Rain = 0
KST2 100035Z 30005KT 01/M02 A3038 RMK A01 T00141020  RH  078%=      5-min Rain = 0
KST2 100036Z 31005KT 02/M02 A3038 RMK A01 T00151020  RH  078%=      5-min Rain = 0
KST2 100037Z 30005KT 01/M02 A3038 RMK A01 T00141021  RH  077%=      5-min Rain = 0
KST2 100038Z 30005KT 01/M02 A3038 RMK A01 T00141022  RH  077%=      5-min Rain = 0
KST2 100039Z 30005KT 01/M02 A3038 RMK A01 T00141022  RH  077%=      5-min Rain = 0
KST2 100040Z 30005KT 02/M02 A3038 RMK A01 T00151022  RH  077%=      5-min Rain = 0
KST2 100041Z 29005KT 02/M02 A3038 RMK A01 T00151021  RH  077%=      5-min Rain = 0
KST2 100042Z 29005KT 02/M02 A3038 RMK A01 T00151021  RH  077%=      5-min Rain = 0
KST2 100043Z 29005KT 01/M02 A3038 RMK A01 T00141021  RH  077%=      5-min Rain = 0
KST2 100044Z 29006KT 01/M02 A3038 RMK A01 T00141021  RH  077%=      5-min Rain = 0
KST2 100045Z 29006KT 01/M02 A3038 RMK A01 T00141021  RH  078%=      5-min Rain = 0
KST2 100046Z 29006KT 01/M02 A3038 RMK A01 T00141021  RH  078%=      5-min Rain = 0
KST2 100047Z 29006KT 01/M02 A3038 RMK A01 T00141021  RH  078%=      5-min Rain = 0
KST2 100048Z 28006KT 01/M02 A3038 RMK A01 T00141021  RH  078%=      5-min Rain = 0
KST2 100049Z 28006KT 01/M02 A3038 RMK A01 T00131022  RH  077%=      5-min Rain = 0
KST2 100050Z 28006KT 01/M02 A3038 RMK A01 T00131023  RH  077%=      5-min Rain = 0
KST2 100051Z 28006KT 01/M02 A3038 RMK A01 T00141024  RH  076%=      5-min Rain = 0
KST2 100052Z 28005KT 01/M02 A3038 RMK A01 T00141024  RH  076%=      5-min Rain = 0
KST2 100053Z 28005KT 02/M02 A3038 RMK A01 T00151024  RH  076%=      5-min Rain = 0
KST2 100054Z 28005KT 01/M03 A3038 RMK A01 T00141025  RH  075%=      5-min Rain = 0
KST2 100055Z 27005KT 02/M02 A3038 RMK A01 T00151024  RH  075%=      5-min Rain = 0
KST2 100056Z 27005KT 01/M02 A3038 RMK A01 T00141022  RH  077%=      5-min Rain = 0
KST2 100057Z 27004KT 01/M02 A3038 RMK A01 T00141020  RH  078%=      5-min Rain = 0
KST2 100058Z 27004KT 01/M02 A3038 RMK A01 T00131021  RH  079%=      5-min Rain = 0
KST2 100059Z 28005KT 01/M02 A3038 RMK A01 T00111021  RH  079%=      5-min Rain = 0
KST2 100100Z 28004KT 01/M02 A3038 RMK A01 T00101022  RH  079%=      5-min Rain = 0
KST2 100101Z 28004KT 01/M02 A3038 RMK A01 T00101021  RH  080%=      5-min Rain = 0
KST2 100102Z 28004KT 01/M02 A3038 RMK A01 T00101021  RH  080%=      5-min Rain = 0
KST2 100103Z 28004KT 01/M02 A3038 RMK A01 T00101021  RH  080%=      5-min Rain = 0
KST2 100104Z 28004KT 01/M02 A3038 RMK A01 T00101020  RH  081%=      5-min Rain = 0
KST2 100105Z 27004KT 01/M02 A3038 RMK A01 T00091020  RH  081%=      5-min Rain = 0
KST2 100106Z 27003KT 01/M02 A3038 RMK A01 T00081021  RH  081%=      5-min Rain = 0
KST2 100107Z 27003KT 01/M02 A3038 RMK A01 T00081021  RH  081%=      5-min Rain = 0
KST2 100108Z 27003KT 01/M02 A3038 RMK A01 T00071021  RH  081%=      5-min Rain = 0
KST2 100109Z 27003KT 01/M02 A3038 RMK A01 T00061021  RH  082%=      5-min Rain = 0
KST2 100110Z 27003KT 01/M02 A3038 RMK A01 T00061021  RH  082%=      5-min Rain = 0
KST2 100111Z 28003KT 01/M02 A3038 RMK A01 T00051021  RH  083%=      5-min Rain = 0
KST2 100112Z 28003KT 01/M02 A3038 RMK A01 T00051021  RH  083%=      5-min Rain = 0
KST2 100113Z 28003KT 00/M02 A3038 RMK A01 T00041021  RH  083%=      5-min Rain = 0
KST2 100114Z 28003KT 00/M02 A3038 RMK A01 T00041020  RH  084%=      5-min Rain = 0
KST2 100115Z 28003KT 00/M02 A3038 RMK A01 T00031019  RH  085%=      5-min Rain = 0
KST2 100116Z 28003KT 00/M02 A3038 RMK A01 T00031019  RH  085%=      5-min Rain = 0
KST2 100117Z 28003KT 00/M02 A3038 RMK A01 T00021019  RH  086%=      5-min Rain = 0
KST2 100118Z 27003KT 00/M02 A3038 RMK A01 T00021019  RH  086%=      5-min Rain = 0
KST2 100119Z 26002KT 00/M02 A3038 RMK A01 T00011019  RH  086%=      5-min Rain = 0
KST2 100120Z 25003KT 00/M02 A3038 RMK A01 T00011019  RH  087%=      5-min Rain = 0
KST2 100121Z 26003KT 00/02 A3038 RMK A01 T00-00-19  RH  087%=      5-min Rain = 0
KST2 100122Z 26003KT 00/02 A3038 RMK A01 T00-00-18  RH  088%=      5-min Rain = 0
KST2 100123Z 27003KT M00/M02 A3038 RMK A01 T10011019  RH  088%=      5-min Rain = 0
KST2 100124Z 28003KT M00/M02 A3038 RMK A01 T10011019  RH  088%=      5-min Rain = 0
KST2 100125Z 27003KT M00/M02 A3038 RMK A01 T10011018  RH  088%=      5-min Rain = 0
KST2 100126Z 28003KT M00/M02 A3038 RMK A01 T10021019  RH  088%=      5-min Rain = 0
KST2 100127Z 27003KT M00/M02 A3038 RMK A01 T10021019  RH  088%=      5-min Rain = 0
KST2 100128Z 27004KT M00/M02 A3038 RMK A01 T10021020  RH  088%=      5-min Rain = 0
KST2 100129Z 27004KT M00/M02 A3038 RMK A01 T10021020  RH  088%=      5-min Rain = 0
KST2 100130Z 27004KT M00/M02 A3038 RMK A01 T10021020  RH  088%=      5-min Rain = 0
KST2 100131Z 28004KT M00/M02 A3038 RMK A01 T10021019  RH  088%=      5-min Rain = 0
KST2 100132Z 28004KT M00/M02 A3038 RMK A01 T10011019  RH  088%=      5-min Rain = 0
KST2 100133Z 28004KT M00/M02 A3038 RMK A01 T10011019  RH  088%=      5-min Rain = 0
KST2 100134Z 28004KT M00/M02 A3038 RMK A01 T10011018  RH  088%=      5-min Rain = 0
KST2 100135Z 28004KT M00/M02 A3038 RMK A01 T10011018  RH  088%=      5-min Rain = 0
KST2 100136Z 28004KT M00/M02 A3038 RMK A01 T10011018  RH  088%=      5-min Rain = 0
KST2 100137Z 28004KT 00/02 A3038 RMK A01 T00-00-19  RH  088%=      5-min Rain = 0
KST2 100138Z 28005KT 00/02 A3038 RMK A01 T00000-19  RH  087%=      5-min Rain = 0
KST2 100139Z 28005KT 00/M02 A3038 RMK A01 T00011020  RH  086%=      5-min Rain = 0
KST2 100140Z 28005KT 00/M02 A3038 RMK A01 T00011020  RH  085%=      5-min Rain = 0
KST2 100141Z 28005KT 00/M02 A3038 RMK A01 T00021021  RH  085%=      5-min Rain = 0
KST2 100142Z 28005KT 00/M02 A3038 RMK A01 T00031021  RH  084%=      5-min Rain = 0
KST2 100143Z 28005KT 00/M02 A3038 RMK A01 T00031021  RH  083%=      5-min Rain = 0
KST2 100144Z 28005KT 00/M02 A3038 RMK A01 T00041021  RH  083%=      5-min Rain = 0
KST2 100145Z 28005KT 00/M02 A3038 RMK A01 T00041021  RH  083%=      5-min Rain = 0
KST2 100146Z 29005KT 01/M02 A3038 RMK A01 T00051021  RH  083%=      5-min Rain = 0
KST2 100147Z 29005KT 01/M02 A3038 RMK A01 T00051022  RH  082%=      5-min Rain = 0
KST2 100148Z 29006KT 01/M02 A3038 RMK A01 T00061022  RH  082%=      5-min Rain = 0
KST2 100149Z 29006KT 01/M02 A3038 RMK A01 T00061022  RH  082%=      5-min Rain = 0
KST2 100150Z 29005KT 01/M02 A3038 RMK A01 T00061021  RH  082%=      5-min Rain = 0
KST2 100151Z 29005KT 01/M02 A3038 RMK A01 T00061021  RH  082%=      5-min Rain = 0
KST2 100152Z 29005KT 01/M02 A3038 RMK A01 T00061021  RH  083%=      5-min Rain = 0
KST2 100153Z 29005KT 01/M02 A3038 RMK A01 T00051021  RH  082%=      5-min Rain = 0
KST2 100154Z 29005KT 01/M02 A3038 RMK A01 T00051021  RH  083%=      5-min Rain = 0
KST2 100155Z 28004KT 01/M02 A3038 RMK A01 T00051021  RH  083%=      5-min Rain = 0
KST2 100156Z 28004KT 01/M02 A3038 RMK A01 T00051021  RH  083%=      5-min Rain = 0
KST2 100157Z 28004KT 00/M02 A3038 RMK A01 T00041020  RH  083%=      5-min Rain = 0
KST2 100158Z 28004KT 00/M02 A3038 RMK A01 T00041020  RH  083%=      5-min Rain = 0
KST2 100159Z 28004KT 00/M02 A3038 RMK A01 T00041021  RH  084%=      5-min Rain = 0
KST2 100200Z 27004KT 00/M02 A3038 RMK A01 T00041021  RH  084%=      5-min Rain = 0
KST2 100201Z 27003KT 00/M02 A3038 RMK A01 T00041020  RH  084%=      5-min Rain = 0
KST2 100202Z 27003KT 00/M02 A3038 RMK A01 T00031019  RH  085%=      5-min Rain = 0
KST2 100203Z 27003KT 00/M02 A3038 RMK A01 T00021020  RH  086%=      5-min Rain = 0
KST2 100204Z 27002KT 00/02 A3038 RMK A01 T00-00-20  RH  087%=      5-min Rain = 0
KST2 100205Z 26002KT M00/M02 A3038 RMK A01 T10021020  RH  087%=      5-min Rain = 0
KST2 100206Z 26002KT M00/M02 A3039 RMK A01 T10031020  RH  088%=      5-min Rain = 0
KST2 100207Z 26002KT M00/M02 A3039 RMK A01 T10031020  RH  088%=      5-min Rain = 0
KST2 100208Z 26002KT M00/M02 A3039 RMK A01 T10041021  RH  089%=      5-min Rain = 0
KST2 100209Z 27002KT M00/M02 A3039 RMK A01 T10041020  RH  089%=      5-min Rain = 0
KST2 100210Z 28002KT M00/M02 A3039 RMK A01 T10041020  RH  089%=      5-min Rain = 0
KST2 100211Z 28003KT M00/M02 A3039 RMK A01 T10041020  RH  089%=      5-min Rain = 0
KST2 100212Z 28004KT M00/M02 A3039 RMK A01 T10041021  RH  089%=      5-min Rain = 0
KST2 100213Z 28004KT M01/M02 A3039 RMK A01 T10051021  RH  088%=      5-min Rain = 0
KST2 100214Z 28004KT M00/M02 A3039 RMK A01 T10041022  RH  088%=      5-min Rain = 0
KST2 100215Z 27003KT M00/M02 A3039 RMK A01 T10031021  RH  088%=      5-min Rain = 0
KST2 100216Z 27003KT M00/M02 A3039 RMK A01 T10031021  RH  088%=      5-min Rain = 0
KST2 100217Z 26002KT M00/M02 A3039 RMK A01 T10031020  RH  088%=      5-min Rain = 0
KST2 100218Z 27003KT M00/M02 A3039 RMK A01 T10031021  RH  088%=      5-min Rain = 0
KST2 100219Z 27003KT M00/M02 A3039 RMK A01 T10041021  RH  088%=      5-min Rain = 0
KST2 100220Z 27004KT M00/M02 A3039 RMK A01 T10041022  RH  088%=      5-min Rain = 0
KST2 100221Z 27004KT M00/M02 A3039 RMK A01 T10031022  RH  087%=      5-min Rain = 0
KST2 100222Z 27003KT M00/M02 A3039 RMK A01 T10031022  RH  087%=      5-min Rain = 0
KST2 100223Z 28003KT M00/M02 A3039 RMK A01 T10031023  RH  086%=      5-min Rain = 0
KST2 100224Z 29004KT M00/M02 A3039 RMK A01 T10031022  RH  087%=      5-min Rain = 0
KST2 100225Z 29004KT M00/M02 A3039 RMK A01 T10031022  RH  087%=      5-min Rain = 0
KST2 100226Z 29004KT M00/M02 A304 RMK A01 T10031022  RH  087%=      5-min Rain = 0
KST2 100227Z 29004KT M00/M02 A304 RMK A01 T10031022  RH  087%=      5-min Rain = 0
KST2 100228Z 29005KT M00/M02 A304 RMK A01 T10021022  RH  087%=      5-min Rain = 0
KST2 100229Z 29005KT M00/M02 A304 RMK A01 T10021022  RH  086%=      5-min Rain = 0
KST2 100230Z 29006KT M00/M02 A304 RMK A01 T10011022  RH  086%=      5-min Rain = 0
KST2 100231Z 29005KT M00/M02 A304 RMK A01 T10011022  RH  086%=      5-min Rain = 0
KST2 100232Z 29005KT 00/02 A304 RMK A01 T00-00-22  RH  085%=      5-min Rain = 0
KST2 100233Z 29005KT 00/02 A304 RMK A01 T00000-22  RH  085%=      5-min Rain = 0
KST2 100234Z 29005KT 00/02 A304 RMK A01 T00000-23  RH  084%=      5-min Rain = 0
KST2 100235Z 30005KT 00/M02 A304 RMK A01 T00011023  RH  084%=      5-min Rain = 0
KST2 100236Z 30005KT 00/M02 A304 RMK A01 T00011023  RH  084%=      5-min Rain = 0
KST2 100237Z 30005KT 00/M02 A304 RMK A01 T00011022  RH  085%=      5-min Rain = 0
KST2 100238Z 30005KT 00/M02 A304 RMK A01 T00011022  RH  085%=      5-min Rain = 0
KST2 100239Z 30005KT 00/02 A304 RMK A01 T00000-22  RH  085%=      5-min Rain = 0
KST2 100240Z 30005KT 00/02 A304 RMK A01 T00000-22  RH  085%=      5-min Rain = 0
KST2 100241Z 30005KT 00/02 A304 RMK A01 T00-00-22  RH  085%=      5-min Rain = 0
KST2 100242Z 30005KT 00/02 A304 RMK A01 T00-00-22  RH  085%=      5-min Rain = 0
KST2 100243Z 30004KT M00/M02 A304 RMK A01 T10011022  RH  085%=      5-min Rain = 0
KST2 100244Z 30004KT 00/02 A304 RMK A01 T00-00-22  RH  086%=      5-min Rain = 0
KST2 100245Z 30005KT M00/M02 A304 RMK A01 T10011022  RH  086%=      5-min Rain = 0
KST2 100246Z 30005KT M00/M02 A304 RMK A01 T10011022  RH  086%=      5-min Rain = 0
KST2 100247Z 30004KT M00/M02 A304 RMK A01 T10011022  RH  086%=      5-min Rain = 0
KST2 100248Z 30004KT M00/M02 A304 RMK A01 T10011021  RH  086%=      5-min Rain = 0
KST2 100249Z 30004KT M00/M02 A304 RMK A01 T10021022  RH  086%=      5-min Rain = 0
KST2 100250Z 30005KT M00/M02 A304 RMK A01 T10011022  RH  086%=      5-min Rain = 0
KST2 100251Z 30005KT M00/M02 A304 RMK A01 T10021022  RH  086%=      5-min Rain = 0
KST2 100252Z 30005KT M00/M02 A304 RMK A01 T10021022  RH  086%=      5-min Rain = 0
KST2 100253Z 30005KT M00/M02 A304 RMK A01 T10021022  RH  086%=      5-min Rain = 0
KST2 100254Z 30005KT M00/M02 A304 RMK A01 T10021022  RH  086%=      5-min Rain = 0
KST2 100255Z 30005KT M00/M02 A304 RMK A01 T10011022  RH  086%=      5-min Rain = 0
KST2 100256Z 30004KT M00/M02 A304 RMK A01 T10021023  RH  086%=      5-min Rain = 0
KST2 100257Z 30004KT M00/M02 A304 RMK A01 T10021023  RH  086%=      5-min Rain = 0
KST2 100258Z 30004KT M00/M02 A304 RMK A01 T10021022  RH  086%=      5-min Rain = 0
KST2 100259Z 30004KT M00/M02 A304 RMK A01 T10021023  RH  086%=      5-min Rain = 0
KST2 100300Z 30004KT M00/M02 A304 RMK A01 T10021023  RH  086%=      5-min Rain = 0
KST2 100301Z 30004KT M00/M02 A304 RMK A01 T10021023  RH  086%=      5-min Rain = 0
KST2 100302Z 30004KT M00/M02 A304 RMK A01 T10021023  RH  086%=      5-min Rain = 0
KST2 100303Z 29004KT M00/M02 A304 RMK A01 T10021023  RH  086%=      5-min Rain = 0
KST2 100304Z 29004KT M00/M02 A304 RMK A01 T10021023  RH  086%=      5-min Rain = 0
KST2 100305Z 29005KT M00/M02 A304 RMK A01 T10021023  RH  086%=      5-min Rain = 0
KST2 100306Z 30005KT M00/M02 A304 RMK A01 T10031023  RH  086%=      5-min Rain = 0
KST2 100307Z 29005KT M00/M02 A304 RMK A01 T10031022  RH  087%=      5-min Rain = 0
KST2 100308Z 29004KT M00/M02 A304 RMK A01 T10031022  RH  087%=      5-min Rain = 0
KST2 100309Z 29005KT M00/M02 A304 RMK A01 T10041022  RH  087%=      5-min Rain = 0
KST2 100310Z 29005KT M00/M02 A304 RMK A01 T10041023  RH  087%=      5-min Rain = 0
KST2 100311Z 29005KT M00/M02 A304 RMK A01 T10041023  RH  087%=      5-min Rain = 0
KST2 100312Z 29005KT M00/M02 A304 RMK A01 T10041023  RH  087%=      5-min Rain = 0
KST2 100313Z 29005KT M00/M02 A304 RMK A01 T10041023  RH  087%=      5-min Rain = 0
KST2 100314Z 29006KT M00/M02 A304 RMK A01 T10041023  RH  087%=      5-min Rain = 0
KST2 100315Z 28006KT M00/M02 A304 RMK A01 T10041023  RH  087%=      5-min Rain = 0
KST2 100316Z 28006KT M00/M02 A304 RMK A01 T10041023  RH  087%=      5-min Rain = 0
KST2 100317Z 28005KT M00/M02 A304 RMK A01 T10041023  RH  087%=      5-min Rain = 0
KST2 100318Z 28005KT M00/M02 A304 RMK A01 T10041023  RH  087%=      5-min Rain = 0
KST2 100319Z 28005KT M00/M02 A304 RMK A01 T10041022  RH  087%=      5-min Rain = 0
KST2 100320Z 28005KT M00/M02 A304 RMK A01 T10041022  RH  088%=      5-min Rain = 0
KST2 100321Z 28005KT M00/M02 A304 RMK A01 T10041022  RH  088%=      5-min Rain = 0
KST2 100322Z 28005KT M01/M02 A304 RMK A01 T10051023  RH  088%=      5-min Rain = 0
KST2 100323Z 28005KT M01/M02 A304 RMK A01 T10061024  RH  088%=      5-min Rain = 0
KST2 100324Z 28004KT M01/M03 A304 RMK A01 T10081025  RH  088%=      5-min Rain = 0
KST2 100325Z 27005KT M01/M03 A304 RMK A01 T10081025  RH  089%=      5-min Rain = 0
KST2 100326Z 27005KT M01/M02 A304 RMK A01 T10081024  RH  089%=      5-min Rain = 0
KST2 100327Z 27005KT M01/M02 A304 RMK A01 T10081024  RH  089%=      5-min Rain = 0
KST2 100328Z 27005KT M01/M02 A304 RMK A01 T10081024  RH  089%=      5-min Rain = 0
KST2 100329Z 27005KT M01/M02 A304 RMK A01 T10081024  RH  089%=      5-min Rain = 0
KST2 100330Z 27005KT M01/M02 A304 RMK A01 T10091024  RH  089%=      5-min Rain = 0
KST2 100331Z 26005KT M01/M02 A304 RMK A01 T10091024  RH  089%=      5-min Rain = 0
KST2 100332Z 26005KT M01/M02 A304 RMK A01 T10091024  RH  090%=      5-min Rain = 0
KST2 100333Z 26005KT M01/M03 A304 RMK A01 T10101025  RH  090%=      5-min Rain = 0
KST2 100334Z 26005KT M01/M02 A304 RMK A01 T10101024  RH  090%=      5-min Rain = 0
KST2 100335Z 26005KT M01/M02 A304 RMK A01 T10101024  RH  090%=      5-min Rain = 0
KST2 100336Z 25005KT M01/M02 A304 RMK A01 T10101024  RH  091%=      5-min Rain = 0
KST2 100337Z 25005KT M01/M02 A304 RMK A01 T10101024  RH  091%=      5-min Rain = 0
KST2 100338Z 26005KT M01/M02 A304 RMK A01 T10111024  RH  091%=      5-min Rain = 0
KST2 100339Z 26005KT M01/M02 A304 RMK A01 T10111024  RH  091%=      5-min Rain = 0
KST2 100340Z 26005KT M01/M02 A304 RMK A01 T10111024  RH  091%=      5-min Rain = 0
KST2 100341Z 26005KT M01/M02 A304 RMK A01 T10101023  RH  091%=      5-min Rain = 0
KST2 100342Z 26005KT M01/M02 A304 RMK A01 T10091023  RH  090%=      5-min Rain = 0
KST2 100343Z 26005KT M01/M02 A304 RMK A01 T10091023  RH  090%=      5-min Rain = 0
KST2 100344Z 26005KT M01/M02 A304 RMK A01 T10091023  RH  090%=      5-min Rain = 0
KST2 100345Z 26005KT M01/M02 A304 RMK A01 T10091023  RH  090%=      5-min Rain = 0
KST2 100346Z 26005KT M01/M02 A304 RMK A01 T10091023  RH  090%=      5-min Rain = 0
KST2 100347Z 26005KT M01/M02 A304 RMK A01 T10091023  RH  090%=      5-min Rain = 0
KST2 100348Z 27006KT M01/M02 A304 RMK A01 T10091023  RH  090%=      5-min Rain = 0
KST2 100349Z 26005KT M01/M02 A304 RMK A01 T10081022  RH  090%=      5-min Rain = 0
KST2 100350Z 26005KT M01/M02 A304 RMK A01 T10081022  RH  090%=      5-min Rain = 0
KST2 100351Z 26005KT M01/M02 A304 RMK A01 T10071022  RH  090%=      5-min Rain = 0
KST2 100352Z 26005KT M01/M02 A304 RMK A01 T10071023  RH  089%=      5-min Rain = 0
KST2 100353Z 27005KT M01/M02 A304 RMK A01 T10071023  RH  089%=      5-min Rain = 0
KST2 100354Z 27005KT M01/M02 A304 RMK A01 T10071023  RH  089%=      5-min Rain = 0
KST2 100355Z 27005KT M01/M02 A304 RMK A01 T10071022  RH  089%=      5-min Rain = 0
KST2 100356Z 27005KT M01/M02 A304 RMK A01 T10061022  RH  089%=      5-min Rain = 0
KST2 100357Z 27005KT M01/M02 A304 RMK A01 T10061022  RH  089%=      5-min Rain = 0
KST2 100358Z 26005KT M01/M02 A304 RMK A01 T10051022  RH  089%=      5-min Rain = 0
KST2 100359Z 26005KT M01/M02 A304 RMK A01 T10051022  RH  088%=      5-min Rain = 0
KST2 100400Z 26005KT M01/M02 A304 RMK A01 T10051022  RH  088%=      5-min Rain = 0
KST2 100401Z 26005KT M01/M02 A304 RMK A01 T10051023  RH  088%=      5-min Rain = 0
KST2 100402Z 26005KT M01/M02 A3039 RMK A01 T10051023  RH  088%=      5-min Rain = 0
KST2 100403Z 26005KT M01/M02 A3039 RMK A01 T10051023  RH  088%=      5-min Rain = 0
KST2 100404Z 26005KT M01/M02 A3039 RMK A01 T10051022  RH  088%=      5-min Rain = 0
KST2 100405Z 26006KT M01/M02 A3039 RMK A01 T10061022  RH  089%=      5-min Rain = 0
KST2 100406Z 26005KT M01/M02 A3039 RMK A01 T10061022  RH  089%=      5-min Rain = 0
KST2 100407Z 26005KT M01/M02 A3039 RMK A01 T10061022  RH  089%=      5-min Rain = 0
KST2 100408Z 27005KT M01/M02 A3039 RMK A01 T10061022  RH  089%=      5-min Rain = 0
KST2 100409Z 27005KT M01/M02 A3039 RMK A01 T10061021  RH  090%=      5-min Rain = 0
KST2 100410Z 26005KT M01/M02 A3039 RMK A01 T10061021  RH  090%=      5-min Rain = 0
KST2 100411Z 26006KT M01/M02 A3039 RMK A01 T10061021  RH  090%=      5-min Rain = 0
KST2 100412Z 26006KT M01/M02 A3039 RMK A01 T10061021  RH  090%=      5-min Rain = 0
KST2 100413Z 26006KT M01/M02 A3039 RMK A01 T10061021  RH  090%=      5-min Rain = 0
KST2 100414Z 26005KT M01/M02 A3039 RMK A01 T10071021  RH  090%=      5-min Rain = 0
KST2 100415Z 26005KT M01/M02 A3039 RMK A01 T10061021  RH  090%=      5-min Rain = 0
KST2 100416Z 26005KT M01/M02 A3039 RMK A01 T10061021  RH  090%=      5-min Rain = 0
KST2 100417Z 25006KT M01/M02 A3039 RMK A01 T10061021  RH  090%=      5-min Rain = 0
KST2 100418Z 26006KT M01/M02 A3039 RMK A01 T10061021  RH  090%=      5-min Rain = 0
KST2 100419Z 26006KT M01/M02 A3039 RMK A01 T10071022  RH  090%=      5-min Rain = 0
KST2 100420Z 25006KT M01/M02 A3039 RMK A01 T10071022  RH  090%=      5-min Rain = 0
KST2 100421Z 25006KT M01/M02 A3039 RMK A01 T10071022  RH  090%=      5-min Rain = 0
KST2 100422Z 26005KT M01/M02 A3039 RMK A01 T10081022  RH  090%=      5-min Rain = 0
KST2 100423Z 26005KT M01/M02 A3039 RMK A01 T10081022  RH  090%=      5-min Rain = 0
KST2 100424Z 25006KT M01/M02 A3039 RMK A01 T10081022  RH  090%=      5-min Rain = 0
KST2 100425Z 25005KT M01/M02 A3039 RMK A01 T10071022  RH  090%=      5-min Rain = 0
KST2 100426Z 25005KT M01/M02 A3039 RMK A01 T10071022  RH  090%=      5-min Rain = 0
KST2 100427Z 26005KT M01/M02 A3039 RMK A01 T10081022  RH  090%=      5-min Rain = 0
KST2 100428Z 26005KT M01/M02 A3039 RMK A01 T10081022  RH  090%=      5-min Rain = 0
KST2 100429Z 26005KT M01/M02 A3039 RMK A01 T10081022  RH  090%=      5-min Rain = 0
KST2 100430Z 26005KT M01/M02 A3039 RMK A01 T10081022  RH  090%=      5-min Rain = 0
KST2 100431Z 26005KT M01/M02 A3039 RMK A01 T10081021  RH  090%=      5-min Rain = 0
KST2 100432Z 26005KT M01/M02 A3039 RMK A01 T10071021  RH  090%=      5-min Rain = 0
KST2 100433Z 26005KT M01/M02 A3039 RMK A01 T10071021  RH  090%=      5-min Rain = 0
KST2 100434Z 27005KT M01/M02 A3039 RMK A01 T10071021  RH  090%=      5-min Rain = 0
KST2 100435Z 26005KT M01/M02 A304 RMK A01 T10061021  RH  090%=      5-min Rain = 0
KST2 100436Z 26005KT M01/M02 A304 RMK A01 T10061021  RH  090%=      5-min Rain = 0
KST2 100437Z 26005KT M01/M02 A3039 RMK A01 T10061021  RH  090%=      5-min Rain = 0
KST2 100438Z 26005KT M01/M02 A3039 RMK A01 T10061021  RH  089%=      5-min Rain = 0
KST2 100439Z 26005KT M01/M02 A3039 RMK A01 T10061022  RH  089%=      5-min Rain = 0
KST2 100440Z 26005KT M01/M02 A3039 RMK A01 T10061021  RH  090%=      5-min Rain = 0
KST2 100441Z 26005KT M01/M02 A3039 RMK A01 T10061022  RH  090%=      5-min Rain = 0
KST2 100442Z 26005KT M01/M02 A3039 RMK A01 T10061021  RH  089%=      5-min Rain = 0
KST2 100443Z 26005KT M01/M02 A3039 RMK A01 T10071022  RH  089%=      5-min Rain = 0
KST2 100444Z 26004KT M01/M02 A3039 RMK A01 T10071022  RH  089%=      5-min Rain = 0
KST2 100445Z 26005KT M01/M02 A3039 RMK A01 T10071022  RH  090%=      5-min Rain = 0
KST2 100446Z 26005KT M01/M02 A3039 RMK A01 T10071022  RH  090%=      5-min Rain = 0
KST2 100447Z 26005KT M01/M02 A3039 RMK A01 T10071022  RH  090%=      5-min Rain = 0
KST2 100448Z 26005KT M01/M02 A3039 RMK A01 T10071022  RH  090%=      5-min Rain = 0
KST2 100449Z 26005KT M01/M02 A3039 RMK A01 T10071022  RH  090%=      5-min Rain = 0
KST2 100450Z 25005KT M01/M02 A3039 RMK A01 T10081022  RH  090%=      5-min Rain = 0
KST2 100451Z 26005KT M01/M02 A3039 RMK A01 T10081022  RH  090%=      5-min Rain = 0
KST2 100452Z 26005KT M01/M02 A3039 RMK A01 T10081022  RH  090%=      5-min Rain = 0
KST2 100453Z 26005KT M01/M02 A3039 RMK A01 T10081022  RH  090%=      5-min Rain = 0
KST2 100454Z 26005KT M01/M02 A3039 RMK A01 T10081022  RH  090%=      5-min Rain = 0
KST2 100455Z 26005KT M01/M02 A3039 RMK A01 T10081022  RH  090%=      5-min Rain = 0
KST2 100456Z 26005KT M01/M02 A3039 RMK A01 T10081022  RH  090%=      5-min Rain = 0
KST2 100457Z 26005KT M01/M02 A3039 RMK A01 T10081022  RH  090%=      5-min Rain = 0
KST2 100458Z 26005KT M01/M02 A3039 RMK A01 T10081022  RH  090%=      5-min Rain = 0
KST2 100459Z 26005KT M01/M02 A3039 RMK A01 T10081023  RH  090%=      5-min Rain = 0
KST2 100500Z 26005KT M01/M02 A3039 RMK A01 T10071023  RH  090%=      5-min Rain = 0
KST2 100501Z 26005KT M01/M02 A3039 RMK A01 T10071022  RH  090%=      5-min Rain = 0
KST2 100502Z 27005KT M01/M02 A3039 RMK A01 T10071022  RH  090%=      5-min Rain = 0
KST2 100503Z 27005KT M01/M02 A3039 RMK A01 T10071022  RH  090%=      5-min Rain = 0
KST2 100504Z 27006KT M01/M02 A3039 RMK A01 T10071022  RH  090%=      5-min Rain = 0
KST2 100505Z 27006KT M01/M02 A304 RMK A01 T10061021  RH  090%=      5-min Rain = 0
KST2 100506Z 27006KT M01/M02 A304 RMK A01 T10061021  RH  089%=      5-min Rain = 0
KST2 100507Z 27006KT M01/M02 A304 RMK A01 T10051021  RH  089%=      5-min Rain = 0
KST2 100508Z 27006KT M01/M02 A304 RMK A01 T10051021  RH  089%=      5-min Rain = 0
KST2 100509Z 27006KT M00/M02 A304 RMK A01 T10041021  RH  088%=      5-min Rain = 0
KST2 100510Z 27006KT M00/M02 A304 RMK A01 T10041022  RH  088%=      5-min Rain = 0
KST2 100511Z 27006KT M00/M02 A304 RMK A01 T10031022  RH  087%=      5-min Rain = 0
KST2 100512Z 27006KT M00/M02 A304 RMK A01 T10031022  RH  087%=      5-min Rain = 0
KST2 100513Z 27006KT M00/M02 A304 RMK A01 T10031023  RH  087%=      5-min Rain = 0
KST2 100514Z 27006KT M00/M02 A304 RMK A01 T10021023  RH  086%=      5-min Rain = 0
KST2 100515Z 27006KT M00/M02 A304 RMK A01 T10021023  RH  086%=      5-min Rain = 0
KST2 100516Z 27005KT M00/M02 A304 RMK A01 T10021023  RH  086%=      5-min Rain = 0
KST2 100517Z 27005KT M00/M02 A304 RMK A01 T10021023  RH  086%=      5-min Rain = 0
KST2 100518Z 27005KT M00/M02 A304 RMK A01 T10021022  RH  086%=      5-min Rain = 0
KST2 100519Z 27005KT M00/M02 A304 RMK A01 T10021022  RH  086%=      5-min Rain = 0
KST2 100520Z 26005KT M00/M02 A304 RMK A01 T10021022  RH  086%=      5-min Rain = 0
KST2 100521Z 26005KT M00/M02 A3039 RMK A01 T10031022  RH  087%=      5-min Rain = 0
KST2 100522Z 26005KT M00/M02 A3039 RMK A01 T10031022  RH  087%=      5-min Rain = 0
KST2 100523Z 26006KT M00/M02 A3039 RMK A01 T10031022  RH  087%=      5-min Rain = 0
KST2 100524Z 26006KT M00/M02 A3039 RMK A01 T10031022  RH  087%=      5-min Rain = 0
KST2 100525Z 26006KT M00/M02 A3039 RMK A01 T10031022  RH  087%=      5-min Rain = 0
KST2 100526Z 26005KT M00/M02 A3039 RMK A01 T10031022  RH  087%=      5-min Rain = 0
KST2 100527Z 26006KT M00/M02 A3039 RMK A01 T10041022  RH  088%=      5-min Rain = 0
KST2 100528Z 26006KT M00/M02 A3039 RMK A01 T10041022  RH  088%=      5-min Rain = 0
KST2 100529Z 26006KT M00/M02 A3039 RMK A01 T10041022  RH  088%=      5-min Rain = 0
KST2 100530Z 26006KT M00/M02 A3039 RMK A01 T10041022  RH  088%=      5-min Rain = 0
KST2 100531Z 26005KT M00/M02 A3039 RMK A01 T10041022  RH  088%=      5-min Rain = 0
KST2 100532Z 26005KT M00/M02 A3039 RMK A01 T10041022  RH  088%=      5-min Rain = 0
KST2 100533Z 26005KT M00/M02 A3039 RMK A01 T10041022  RH  088%=      5-min Rain = 0
KST2 100534Z 26006KT M01/M02 A3039 RMK A01 T10051022  RH  088%=      5-min Rain = 0
KST2 100535Z 26005KT M01/M02 A3039 RMK A01 T10051022  RH  088%=      5-min Rain = 0
KST2 100536Z 26005KT M01/M02 A3039 RMK A01 T10061023  RH  088%=      5-min Rain = 0
KST2 100537Z 26005KT M01/M02 A3039 RMK A01 T10061022  RH  089%=      5-min Rain = 0
KST2 100538Z 26006KT M01/M02 A3039 RMK A01 T10061023  RH  089%=      5-min Rain = 0
KST2 100539Z 25006KT M01/M02 A3039 RMK A01 T10061023  RH  089%=      5-min Rain = 0
KST2 100540Z 25006KT M01/M02 A3039 RMK A01 T10071023  RH  089%=      5-min Rain = 0
KST2 100541Z 25006KT M01/M02 A3039 RMK A01 T10071023  RH  089%=      5-min Rain = 0
KST2 100542Z 25006KT M01/M02 A3039 RMK A01 T10071023  RH  089%=      5-min Rain = 0
KST2 100543Z 24005KT M01/M02 A3038 RMK A01 T10071023  RH  089%=      5-min Rain = 0
KST2 100544Z 24005KT M01/M02 A3038 RMK A01 T10071023  RH  089%=      5-min Rain = 0
KST2 100545Z 24005KT M01/M02 A3038 RMK A01 T10071023  RH  089%=      5-min Rain = 0
KST2 100546Z 24005KT M01/M02 A3038 RMK A01 T10081023  RH  089%=      5-min Rain = 0
KST2 100547Z 24005KT M01/M02 A3038 RMK A01 T10081023  RH  089%=      5-min Rain = 0
KST2 100548Z 23005KT M01/M02 A3038 RMK A01 T10081023  RH  089%=      5-min Rain = 0
KST2 100549Z 23005KT M01/M02 A3038 RMK A01 T10081023  RH  090%=      5-min Rain = 0
KST2 100550Z 23006KT M01/M02 A3038 RMK A01 T10081022  RH  090%=      5-min Rain = 0
KST2 100551Z 23006KT M01/M02 A3038 RMK A01 T10081022  RH  090%=      5-min Rain = 0
KST2 100552Z 24006KT M01/M02 A3038 RMK A01 T10081021  RH  091%=      5-min Rain = 0
KST2 100553Z 24005KT M01/M02 A3038 RMK A01 T10071020  RH  091%=      5-min Rain = 0
KST2 100554Z 24006KT M01/M02 A3038 RMK A01 T10081020  RH  091%=      5-min Rain = 0
KST2 100555Z 25006KT M01/M02 A3038 RMK A01 T10081020  RH  091%=      5-min Rain = 0
KST2 100556Z 25005KT M01/M02 A3038 RMK A01 T10081021  RH  091%=      5-min Rain = 0
KST2 100557Z 25006KT M01/M02 A3038 RMK A01 T10081021  RH  091%=      5-min Rain = 0
KST2 100558Z 25006KT M01/M02 A3038 RMK A01 T10081021  RH  091%=      5-min Rain = 0
KST2 100559Z 25006KT M01/M02 A3038 RMK A01 T10081021  RH  091%=      5-min Rain = 0

Page generated in 0.1637 seconds.